GFSCGP_925_thetae_000.txt.gz
Theta_e
316 316 315 316 316 316 316 316 315 315 315 316 315 316 315 318 321 321 321 322 321 318 316 319 320 322 326 327 326 327 327 325 318 315 316 314 313 313 312 311 311 311 311 311
315 316 316 317 319 319 318 319 318 317 317 314 316 315 317 320 319 319 320 321 319 318 316 315 315 315 315 315 314 315 315 315 315 315 314 313 312 312 312 312 312 311 309 307
316 317 317 319 318 320 320 319 319 319 317 313 317 316 318 316 316 315 315 316 318 318 316 315 314 314 314 313 314 313 313 313 312 312 312 311 311 312 312 311 310 309 307 305
317 318 320 319 319 319 323 321 320 319 317 314 315 318 318 318 318 318 318 317 318 317 316 315 314 315 314 313 313 313 313 312 312 312 311 311 311 311 308 306 307 307 304 303
320 320 320 320 320 319 322 320 320 320 318 318 318 318 318 318 318 317 315 316 315 315 314 313 315 315 315 314 314 313 313 312 312 311 311 311 310 306 306 307 305 304 302 301
318 318 319 319 319 319 319 321 320 320 319 321 322 321 320 319 319 318 316 315 314 313 313 314 316 316 315 314 314 313 313 313 311 311 310 310 307 306 306 303 302 301 301 300
320 320 318 318 321 319 318 321 325 324 320 321 323 324 323 320 318 318 317 315 313 312 313 313 314 315 315 314 314 313 313 313 312 311 309 308 306 304 302 302 303 302 300 300
321 322 318 317 319 319 320 319 320 326 321 323 319 323 319 316 318 317 316 314 314 313 312 312 313 312 312 312 312 312 311 310 310 306 304 303 303 303 304 304 303 301 300 300
322 321 319 317 317 319 321 316 316 318 315 318 319 319 317 316 316 315 316 316 313 311 309 310 310 310 310 310 309 309 309 307 305 304 304 306 306 305 305 303 302 300 300 299
319 320 317 317 319 318 315 316 320 315 319 318 318 321 321 318 317 313 313 312 311 310 309 308 309 309 308 306 306 306 307 307 306 306 306 304 303 302 301 301 301 300 299 297
320 317 317 320 318 319 318 319 318 316 314 316 315 316 314 318 315 314 313 311 310 309 308 307 307 306 305 305 305 304 304 305 303 302 304 304 305 303 301 300 299 297 296 295
317 314 313 319 317 318 318 319 316 313 321 312 311 315 314 313 313 314 313 311 310 308 308 307 306 305 303 303 300 298 298 297 296 296 299 303 304 303 300 299 297 297 295 293
317 314 315 320 321 316 318 317 320 314 308 314 310 311 315 314 313 313 311 311 309 307 306 305 304 303 301 298 297 297 296 295 295 294 294 294 295 296 300 298 295 293 292 292
317 318 314 318 318 314 315 315 318 316 311 314 312 314 316 314 314 312 310 308 306 306 305 304 303 302 298 298 297 296 295 294 294 294 293 294 296 297 298 294 294 293 292 292
316 317 316 314 315 315 315 315 314 315 314 315 314 315 317 314 313 312 310 308 307 306 305 304 302 300 297 297 295 295 294 294 293 293 293 294 295 296 296 297 296 294 293 292
315 314 313 316 317 316 315 313 314 313 314 313 316 317 313 311 310 310 308 306 306 305 304 303 301 297 296 295 294 294 293 293 293 292 293 294 294 294 295 295 294 293 293 289
312 307 308 313 311 312 310 314 317 316 316 314 313 315 311 312 310 307 306 305 305 304 303 301 298 296 295 294 294 294 293 293 293 293 294 293 293 294 293 294 294 294 291 291
310 311 303 305 303 307 316 313 314 318 317 314 313 312 310 310 308 305 304 303 303 303 302 299 296 295 295 294 294 293 293 293 293 293 293 293 293 292 293 293 292 291 292 291
310 302 306 304 307 306 312 315 314 314 318 315 313 311 310 308 305 306 303 302 302 302 299 297 296 295 294 294 294 293 293 293 293 293 293 293 292 292 292 293 293 292 291 288
310 301 305 308 302 302 307 315 313 312 314 313 312 310 310 307 303 305 304 304 303 299 298 297 296 295 294 294 294 293 293 293 292 292 292 291 292 292 292 292 292 291 287 288
305 301 306 304 300 306 307 311 312 313 310 312 310 309 308 306 303 303 305 304 300 298 297 296 295 294 294 294 293 293 293 293 292 291 291 291 291 291 290 290 289 288 288 286
309 307 305 302 303 311 309 313 311 309 312 310 309 308 307 306 306 305 304 299 297 295 294 294 294 294 294 293 293 293 293 292 292 291 290 290 290 289 289 289 289 288 286 285
312 309 309 310 311 308 309 311 311 311 310 309 307 307 307 306 306 301 298 295 293 293 293 293 293 293 293 292 292 292 293 292 292 291 289 289 289 289 289 289 288 286 285 285
312 313 310 312 314 312 312 313 312 311 309 307 306 306 306 306 301 295 293 293 292 293 293 293 292 292 292 292 292 293 292 292 291 290 289 289 288 289 289 288 286 286 285 284
308 314 313 311 313 314 314 313 310 309 308 308 307 307 306 298 294 293 292 292 292 292 292 292 291 291 291 292 292 291 291 291 291 290 289 288 288 288 288 286 286 285 284 284
312 312 310 312 311 311 311 310 308 308 308 308 307 298 295 294 292 293 292 292 292 292 291 290 291 291 291 291 289 289 290 290 289 289 289 289 288 288 287 286 285 285 284 284

GFSCGP_925_thetae_003.txt.gz
Theta_e
314 314 314 314 314 314 315 314 313 312 313 315 315 317 318 318 320 320 318 316 316 315 314 315 319 323 326 326 329 327 325 317 318 314 314 314 313 311 311 311 310 309 308 307
314 316 315 316 317 318 317 316 317 314 315 316 318 317 316 316 318 319 318 316 315 314 314 314 314 317 319 316 318 318 318 314 315 315 314 314 312 311 311 309 309 308 307 306
315 316 316 317 317 319 319 317 318 316 316 316 319 318 315 315 315 316 315 315 314 314 314 314 312 313 314 315 314 313 312 312 312 314 312 311 311 311 310 307 306 305 304 304
316 317 318 318 318 318 321 319 318 315 318 320 315 320 318 317 317 317 317 316 316 316 313 312 311 311 312 311 312 312 312 312 312 311 311 310 310 310 307 305 304 303 302 300
319 319 319 318 319 319 321 319 318 318 315 315 317 318 318 316 319 318 316 316 315 314 312 311 312 313 313 313 312 312 312 312 311 311 310 310 309 306 305 303 301 301 300 299
318 317 318 318 318 318 318 319 319 318 317 319 320 318 318 317 317 316 315 315 315 312 311 312 313 313 311 310 310 309 310 310 310 310 309 308 307 304 303 302 304 304 302 302
317 317 315 317 320 318 317 320 322 322 318 320 319 321 319 316 315 316 316 314 312 311 312 313 311 310 310 311 311 311 312 312 310 309 307 306 304 302 302 304 304 302 302 302
319 320 316 315 317 318 317 318 320 324 319 320 317 322 319 315 315 315 314 313 312 314 310 307 308 309 308 309 309 309 308 307 306 305 304 303 304 304 304 304 303 302 301 301
319 319 317 316 316 318 319 315 315 317 313 317 317 317 316 315 316 315 315 313 309 308 307 306 307 307 306 306 306 306 306 305 305 305 305 304 303 303 302 301 300 300 300 299
317 317 316 316 318 316 315 315 317 313 316 317 317 319 318 315 316 313 311 310 308 306 306 305 305 304 304 304 304 305 305 303 300 300 300 301 302 301 301 301 300 299 299 297
318 314 316 317 317 318 317 317 314 315 312 314 314 318 312 314 313 312 311 309 308 306 305 304 303 303 302 300 300 299 298 296 295 294 294 294 293 293 293 294 298 299 297 296
316 313 313 317 315 316 316 317 312 310 318 310 308 313 311 312 311 311 310 308 306 305 304 303 303 301 299 296 296 295 295 294 294 293 292 292 292 291 292 295 296 295 294 292
315 313 315 319 318 314 317 317 314 310 308 315 308 310 312 311 311 310 309 308 306 304 303 302 301 299 297 296 295 295 294 294 293 293 292 292 291 291 291 293 295 293 292 293
315 315 313 317 317 313 313 315 315 313 310 312 310 312 315 312 311 309 308 306 304 303 303 302 300 297 296 295 295 294 294 293 293 293 292 292 291 291 292 293 293 293 294 295
313 314 315 314 313 314 314 314 314 316 313 314 313 312 313 312 310 309 307 305 304 304 303 302 299 296 295 295 294 294 293 293 293 293 292 292 292 291 291 292 293 293 292 291
310 314 311 317 314 313 314 312 311 311 312 314 314 316 312 310 308 308 307 305 304 303 303 302 298 295 295 294 294 294 293 293 293 292 292 292 292 291 291 292 292 293 293 292
309 306 305 307 309 309 306 310 313 313 315 312 314 313 310 310 309 307 305 304 303 302 301 300 296 294 295 294 294 293 293 293 292 292 292 292 292 291 291 291 292 293 291 290
309 305 300 305 302 304 309 309 312 314 315 313 311 311 310 310 307 305 302 302 301 300 300 298 295 294 294 294 293 293 293 292 292 292 292 292 291 291 291 292 292 292 292 291
307 302 306 303 305 304 308 313 316 315 315 312 311 309 308 307 304 304 302 300 300 299 299 297 295 294 293 293 293 293 292 292 292 292 292 291 291 291 291 292 292 292 291 290
307 299 303 304 300 301 304 313 312 311 312 312 310 309 307 304 304 306 302 301 301 301 296 295 294 293 293 293 292 292 292 293 292 292 291 291 290 290 291 290 290 289 287 286
305 299 301 297 298 304 304 311 311 314 310 311 310 308 306 307 304 302 301 303 301 295 294 294 293 293 293 293 292 292 292 292 292 292 291 290 289 290 289 289 288 287 287 286
311 308 306 304 303 309 307 310 312 310 310 310 308 307 307 305 304 304 303 295 293 293 293 293 292 292 293 292 291 291 292 292 292 291 291 290 289 289 289 288 288 287 286 284
310 307 308 309 309 307 307 310 309 308 310 308 307 306 306 305 304 303 294 292 292 292 292 292 292 291 291 290 291 291 292 292 291 291 290 289 288 288 288 288 287 285 284 284
311 309 308 310 311 309 308 310 311 308 309 307 306 306 305 305 301 294 292 292 291 291 292 291 290 290 290 290 291 290 289 289 290 289 289 288 288 288 288 287 285 285 284 284
308 311 311 309 310 311 311 311 311 310 307 306 305 306 305 300 293 292 292 291 291 291 291 290 289 290 290 290 290 289 288 289 290 289 288 288 288 287 287 285 286 285 284 284
309 310 308 309 309 311 309 310 309 308 307 307 306 301 296 294 293 292 291 292 291 291 290 289 289 289 289 290 289 288 288 288 289 288 288 289 289 287 287 286 285 284 284 284

GFSCGP_925_thetae_009.txt.gz
Theta_e
314 316 316 315 312 310 312 313 314 313 316 321 320 321 320 319 320 321 321 321 321 320 317 318 320 324 327 327 328 327 325 324 325 323 313 312 312 312 310 309 308 307 305 304
317 317 314 315 316 315 315 316 318 318 317 320 320 322 320 319 319 319 320 321 321 319 318 317 320 323 325 326 325 325 323 320 317 315 314 314 314 310 308 306 305 304 303 302
317 316 315 317 317 319 317 318 316 320 320 319 322 323 323 321 320 319 318 318 318 319 318 316 317 318 319 317 316 317 315 314 313 313 312 311 310 309 307 304 303 302 303 303
319 316 316 317 319 318 321 315 319 321 321 323 317 322 323 323 322 321 319 319 318 316 314 311 310 310 310 311 311 311 311 310 309 309 309 309 309 309 305 302 303 303 302 302
319 318 317 319 317 318 320 317 319 316 317 319 320 324 320 321 325 323 320 318 316 313 313 311 310 309 308 308 308 308 308 308 308 308 308 308 307 305 303 303 303 302 302 302
317 315 316 317 316 316 317 319 319 318 319 324 319 320 322 323 324 323 320 318 316 314 313 311 310 309 308 308 308 309 308 306 305 305 303 303 303 302 302 302 302 302 302 302
317 317 315 315 319 317 319 322 326 326 327 324 319 321 322 319 319 321 320 318 316 315 313 312 311 309 307 307 306 304 304 303 303 303 303 302 302 301 301 301 300 300 299 298
319 321 316 315 318 319 318 321 327 326 327 324 319 325 322 316 316 319 318 318 316 315 313 312 308 306 305 304 303 303 303 302 301 300 298 297 296 295 293 292 291 292 293 294
320 319 314 315 315 317 317 319 316 320 314 321 320 319 318 315 316 317 317 316 316 314 312 310 307 305 304 303 303 303 300 297 296 296 295 294 293 292 291 291 290 290 290 294
318 318 315 315 315 315 317 314 319 318 321 320 318 320 322 319 318 317 317 317 315 312 310 307 304 304 304 303 300 297 297 296 295 295 294 293 293 292 292 291 291 290 290 295
314 318 318 316 318 319 318 317 315 315 315 317 318 318 316 319 318 318 318 315 314 311 309 305 303 301 302 299 297 296 296 296 296 294 294 294 293 293 292 291 291 290 291 294
315 317 320 317 315 315 315 316 315 318 314 313 316 318 312 313 314 316 314 312 311 309 305 303 301 299 298 297 296 298 297 296 295 294 293 293 293 292 292 291 291 290 291 292
315 318 321 319 315 315 317 315 312 311 313 317 326 316 312 312 312 313 314 310 309 307 304 303 300 298 297 296 296 296 298 297 294 293 293 293 292 292 292 291 291 291 291 291
314 313 317 320 316 314 316 317 312 314 318 315 318 315 313 315 313 311 311 309 308 306 305 304 301 298 297 296 297 300 299 294 293 293 293 292 292 292 291 291 291 291 291 292
313 317 314 313 313 313 312 315 313 314 314 319 315 313 313 314 314 312 309 308 307 306 304 303 301 298 297 296 297 300 295 294 293 293 292 292 292 292 291 291 291 290 291 293
310 315 311 316 313 312 314 312 312 314 313 312 312 315 311 311 310 310 309 307 307 306 305 303 301 298 296 296 298 297 295 293 293 292 292 292 292 292 291 291 290 290 292 292
310 311 311 312 308 308 313 312 312 312 311 315 316 315 312 312 311 311 310 308 307 307 305 303 302 300 298 297 297 295 294 293 292 292 292 291 292 292 291 291 290 291 291 291
307 306 305 314 306 314 312 310 310 312 311 311 312 312 312 312 310 309 309 308 307 306 305 303 301 300 298 296 295 293 293 292 292 291 292 292 291 291 291 291 290 291 290 290
306 307 307 316 312 308 309 308 314 315 314 313 313 312 310 308 309 311 308 307 308 306 303 301 300 299 296 293 293 292 292 292 292 291 291 291 291 291 290 290 290 289 289 289
306 303 312 307 311 312 310 306 312 312 318 312 313 312 310 310 317 316 309 306 305 303 300 298 297 293 292 292 293 293 292 290 290 291 291 291 291 290 290 290 289 288 288 286
312 308 311 302 314 310 306 309 310 316 316 311 311 311 309 313 315 309 305 303 303 299 295 294 292 292 292 292 292 291 290 290 290 290 289 289 289 289 289 289 288 287 286 285
315 313 312 304 310 315 305 311 316 315 308 310 310 310 310 311 305 305 303 299 296 294 292 292 292 292 292 291 291 289 290 290 289 288 288 289 289 288 288 287 287 287 285 285
314 312 314 310 313 308 306 311 309 308 309 310 310 309 309 307 305 304 300 295 293 292 292 292 292 291 290 289 289 290 289 289 288 288 288 288 288 288 287 287 287 286 284 284
310 306 311 310 310 307 307 308 307 308 310 309 309 309 307 308 305 301 294 293 292 292 292 292 290 289 289 289 289 289 289 288 288 288 288 288 288 287 287 287 286 285 284 284
311 309 310 310 310 309 309 309 311 310 308 309 309 308 308 307 304 297 294 292 291 293 298 290 289 289 289 289 289 288 288 287 287 287 287 287 286 286 287 287 286 285 285 285
309 312 314 316 312 311 311 308 309 310 311 310 309 307 303 302 298 294 293 293 297 295 290 289 289 289 289 289 288 288 287 287 287 287 288 287 287 286 287 287 286 285 285 285

GFSCGP_925_thetae_012.txt.gz
Theta_e
318 318 318 317 316 316 316 317 316 318 321 323 322 322 322 325 329 330 329 329 329 329 326 327 329 329 330 330 330 331 329 328 326 324 321 317 317 317 313 311 309 309 308 307
319 318 318 319 317 317 317 316 320 320 321 323 324 325 323 323 326 329 330 330 329 328 328 328 329 330 331 331 330 329 328 327 325 322 319 319 319 316 311 309 308 307 306 306
319 320 319 320 320 319 320 320 322 321 321 323 324 325 325 324 323 324 326 327 327 328 329 330 329 329 328 327 326 324 322 320 319 318 317 316 315 312 311 309 307 306 306 305
321 319 320 321 321 321 322 320 321 322 322 321 323 322 326 326 326 326 326 327 327 328 327 324 323 323 320 319 319 318 317 316 314 313 314 314 314 314 310 307 307 306 306 305
322 321 321 322 322 321 323 321 323 322 323 323 323 323 327 326 327 328 327 327 326 324 322 320 318 317 315 315 314 313 312 311 312 312 312 312 310 308 307 307 306 306 306 305
321 319 321 321 320 320 321 322 322 322 323 324 323 323 323 328 327 328 327 324 323 321 318 316 314 313 313 313 313 312 311 310 310 309 309 308 307 306 306 305 303 301 299 298
322 321 320 320 323 321 323 323 324 323 325 325 323 324 322 323 324 327 327 323 321 319 318 317 315 314 313 313 311 310 309 308 308 307 306 305 303 301 299 298 296 296 295 295
320 323 320 319 322 322 324 323 323 322 326 321 323 322 321 321 322 325 325 322 320 320 318 317 315 314 313 311 310 309 308 307 305 302 300 299 297 297 296 296 295 295 294 294
321 321 318 319 320 320 321 323 322 325 322 326 322 323 323 321 321 323 324 322 321 320 319 317 314 312 311 310 310 307 305 302 301 300 298 297 297 296 296 296 295 294 294 294
322 322 319 319 319 319 321 320 323 324 325 323 320 321 320 323 322 322 323 322 321 320 319 316 313 311 310 309 306 304 302 301 299 298 298 297 297 297 296 296 295 294 294 294
320 322 322 320 322 322 321 320 318 320 322 317 315 316 321 322 323 322 323 322 321 320 318 315 312 310 309 306 304 302 301 300 297 298 297 297 297 297 296 295 294 293 293 293
320 323 326 322 319 319 320 320 318 318 318 320 323 317 317 320 320 322 322 321 321 320 318 314 310 309 307 304 302 301 300 300 299 297 297 297 297 296 296 295 294 293 293 293
321 324 325 322 321 319 321 320 317 318 321 320 329 316 317 318 319 319 321 321 320 318 315 312 309 307 305 303 301 300 300 298 298 296 297 296 296 296 296 295 294 293 293 293
316 322 324 326 321 321 322 320 318 317 320 318 320 315 316 317 319 319 319 320 318 317 313 311 308 306 304 302 301 301 300 300 297 296 296 296 296 296 295 295 294 293 293 293
321 323 320 318 317 317 318 319 319 318 318 318 315 316 314 316 317 318 318 318 317 315 312 311 309 306 304 302 302 302 301 299 297 296 296 296 295 295 295 294 293 293 293 293
318 324 319 320 317 316 318 317 319 319 318 318 316 317 317 317 316 318 317 316 315 313 312 311 309 307 304 302 302 301 300 298 297 296 296 295 295 294 294 294 293 292 292 293
321 320 318 320 315 316 321 318 317 317 318 318 318 318 317 317 317 317 317 315 314 313 312 311 310 307 304 302 301 301 299 297 296 295 295 294 294 294 293 293 293 292 292 293
316 317 316 322 313 330 315 313 314 316 316 316 316 316 316 316 317 316 316 315 314 313 312 311 309 306 303 301 300 300 297 295 295 294 294 293 293 292 292 293 293 293 292 292
313 317 318 329 318 316 312 311 313 316 314 316 315 315 315 315 315 317 314 314 315 313 312 311 308 305 302 301 299 296 295 294 294 293 292 292 292 292 292 292 292 292 292 291
312 312 320 317 333 334 315 311 315 315 316 315 316 317 317 316 322 314 316 314 313 312 311 309 305 302 300 297 295 295 295 294 292 292 292 291 291 291 291 292 292 292 291 290
321 319 325 320 328 318 313 312 314 316 316 316 317 317 317 318 318 316 314 314 312 311 309 305 300 299 297 295 295 295 293 292 292 291 291 291 291 291 291 291 291 291 291 290
321 323 324 316 326 326 310 314 320 318 317 315 316 317 318 317 315 312 310 311 311 308 303 299 297 296 294 294 293 293 292 291 291 291 291 291 291 291 290 291 291 291 290 289
319 319 321 318 319 314 312 317 316 314 316 316 316 315 315 315 315 311 309 307 306 302 298 295 294 294 294 292 291 291 291 291 291 290 291 291 291 290 290 290 291 291 290 289
316 312 318 316 315 314 313 313 313 313 314 314 314 314 314 315 314 312 308 304 301 297 295 295 293 294 291 291 291 291 291 290 290 290 290 290 289 288 289 290 290 290 289 289
317 314 317 316 315 314 314 314 314 314 314 314 315 315 315 314 314 311 305 301 297 294 294 294 293 291 291 291 291 290 290 289 289 290 290 289 289 288 288 288 289 289 289 288
314 317 319 319 314 315 315 313 313 315 315 314 314 314 309 310 310 306 301 295 298 295 293 291 291 291 291 290 290 290 289 289 289 289 290 290 289 289 288 288 288 289 288 286

GFSCGP_925_thetae_015.txt.gz
Theta_e
320 320 320 319 319 318 318 317 316 317 318 317 317 320 321 326 326 327 328 330 331 331 330 330 331 332 332 332 333 332 331 330 329 329 327 323 320 319 318 315 313 312 311 310
321 321 319 319 318 317 317 317 319 319 319 321 319 321 322 324 326 327 327 328 329 330 330 331 332 333 333 333 333 331 331 330 329 326 322 320 320 319 315 313 312 310 310 309
321 320 319 319 317 317 319 317 320 320 321 322 321 324 325 324 326 328 328 328 329 331 331 332 333 333 333 332 332 331 329 327 324 321 321 321 319 315 314 313 311 310 309 309
322 321 319 318 319 319 321 321 321 320 323 322 322 321 325 326 326 326 327 329 330 330 331 332 332 332 330 329 327 325 323 321 321 318 317 317 317 316 314 312 311 310 309 308
322 321 321 320 322 322 325 322 323 322 322 324 323 322 326 327 326 327 327 327 328 330 331 329 326 325 323 322 321 320 318 315 316 316 316 315 314 312 310 310 309 307 305 301
322 322 322 322 322 322 323 323 324 323 323 325 321 323 325 328 327 327 328 329 329 329 326 323 321 319 319 318 317 316 315 315 314 314 313 312 310 308 307 303 301 300 298 298
321 321 322 322 323 323 322 323 324 323 325 324 323 323 322 322 326 326 329 329 328 326 323 320 319 318 317 317 317 315 314 313 312 310 308 306 303 301 300 299 298 298 297 297
321 325 322 322 323 322 323 322 323 322 323 321 324 322 321 324 323 324 328 327 327 324 321 319 318 318 317 317 315 314 313 312 309 305 303 301 299 299 299 298 298 297 297 296
321 321 321 322 322 321 322 323 323 325 325 325 321 320 322 324 323 324 328 327 325 323 321 320 318 318 317 316 314 314 312 308 305 303 301 300 299 299 299 298 298 296 296 295
321 322 321 321 322 322 323 322 323 321 323 323 319 320 318 324 323 324 327 327 325 323 321 320 319 317 316 314 314 311 308 306 305 302 300 299 299 299 299 298 297 296 296 295
320 320 324 322 322 321 323 321 321 322 324 323 318 319 320 318 322 323 325 326 325 323 321 321 318 316 315 314 311 308 306 306 303 301 300 300 300 299 298 298 297 296 295 295
320 322 326 324 322 322 323 323 322 322 320 321 325 319 318 320 321 322 323 324 324 323 322 321 318 316 314 312 309 307 306 304 302 301 300 300 300 299 298 298 297 296 295 295
324 322 326 324 323 321 320 320 321 319 322 320 328 319 319 319 319 320 322 323 323 323 323 321 318 315 314 311 308 306 305 304 302 300 300 300 299 299 298 297 297 296 295 294
318 322 323 325 323 323 324 320 320 320 322 320 321 317 317 318 318 318 319 321 323 323 323 322 319 315 313 310 308 306 305 304 302 300 299 299 299 298 298 297 296 296 294 294
323 324 322 322 322 320 320 320 320 320 319 321 319 315 315 316 316 317 318 319 320 322 322 321 318 314 312 310 307 305 305 304 301 300 299 299 298 298 297 296 296 295 294 294
323 326 323 325 322 320 320 319 318 319 319 318 317 317 317 317 317 317 317 319 319 320 320 319 316 313 311 309 306 306 305 303 301 300 299 298 298 297 296 295 295 295 294 294
325 327 323 321 320 321 324 321 319 318 318 318 319 318 318 319 317 317 317 318 318 319 319 317 315 313 311 309 306 306 304 302 300 299 298 297 297 296 295 294 294 294 294 294
325 324 323 322 318 327 317 317 316 318 318 318 317 317 317 317 318 318 318 318 318 317 317 316 315 313 312 309 305 304 303 301 299 298 297 297 295 294 293 293 294 294 294 294
319 322 323 330 319 317 315 314 314 316 316 315 317 316 316 317 318 318 318 317 317 317 316 315 314 313 311 308 305 303 301 299 297 297 296 294 293 293 293 293 293 293 294 293
316 319 321 320 330 331 319 315 316 317 315 315 315 315 315 317 320 316 317 316 316 315 315 315 314 312 310 306 303 301 299 299 297 296 294 293 293 292 292 293 293 293 293 293
323 324 327 324 328 322 316 314 316 316 319 317 317 316 316 317 316 318 316 316 315 315 315 314 313 311 307 302 299 300 298 297 294 293 293 292 292 292 293 292 292 293 293 292
323 325 327 325 327 326 313 316 319 322 317 317 316 316 318 318 317 317 316 314 315 315 314 311 308 304 300 299 298 297 295 293 293 293 292 292 292 292 292 292 292 293 292 292
323 321 324 320 321 317 315 315 316 317 317 317 316 316 316 316 316 316 316 314 312 313 308 304 300 298 298 295 293 293 294 293 292 292 292 292 292 292 292 292 292 292 292 292
319 317 319 318 316 315 315 315 315 315 315 315 315 316 316 317 317 316 315 311 308 306 301 298 298 296 293 294 293 292 292 292 292 291 291 291 291 291 290 290 291 292 292 291
320 317 318 318 316 315 315 315 316 316 316 317 317 317 317 315 316 315 313 307 303 299 297 297 294 294 293 293 292 292 291 291 291 290 291 291 291 291 291 290 290 290 290 291
318 316 320 319 318 318 316 316 316 316 317 315 315 315 310 310 312 310 303 300 299 296 295 294 294 294 292 292 292 291 291 290 290 291 291 291 291 291 291 290 290 289 289 289

GFSCGP_925_thetae_021.txt.gz
Theta_e
317 317 318 319 319 319 318 316 317 316 317 318 318 318 321 325 324 325 327 327 327 326 326 327 327 330 332 331 330 329 330 330 329 325 324 327 323 320 316 315 313 311 310 310
318 319 320 320 319 319 319 320 318 317 316 315 316 318 318 325 325 325 328 325 327 326 327 329 330 332 334 332 330 331 331 330 328 323 326 326 321 318 316 314 312 311 310 309
320 322 321 322 322 320 320 321 318 317 315 314 318 317 318 319 320 325 325 321 323 327 329 329 331 332 334 333 331 331 331 330 328 328 328 323 320 315 314 312 311 310 309 309
321 321 322 322 322 319 319 321 321 320 319 317 319 320 322 322 322 321 324 327 327 329 329 330 331 332 334 332 332 331 330 328 329 329 321 320 315 314 313 312 311 308 306 305
321 322 322 322 321 319 321 320 320 322 320 323 322 321 321 322 320 321 320 321 321 328 328 329 331 333 333 332 330 328 328 328 329 322 321 319 314 312 311 308 306 305 303 300
319 319 322 321 321 319 322 322 322 322 319 322 323 324 324 323 322 323 323 324 324 326 327 328 332 332 331 331 331 330 325 319 318 320 317 315 311 308 308 307 303 301 299 298
321 320 320 322 321 320 321 319 323 322 325 324 325 325 323 323 322 323 324 322 323 327 328 327 325 324 323 323 321 319 317 316 316 315 311 310 308 309 307 302 301 299 298 297
323 324 322 321 319 322 322 320 323 327 329 328 325 328 324 322 323 322 324 322 324 326 325 323 321 321 320 319 317 316 316 314 314 312 309 307 305 304 303 300 299 298 298 297
324 325 323 323 323 320 320 322 322 327 327 329 327 322 322 322 323 325 322 321 325 323 321 319 318 319 319 318 316 316 315 313 310 307 305 303 303 302 299 299 298 297 297 296
325 325 323 323 323 320 320 319 322 322 325 323 319 320 324 323 323 322 323 323 324 322 319 318 317 317 318 318 317 316 314 311 307 304 303 303 301 299 299 299 298 297 297 296
322 325 327 324 323 319 320 319 319 319 321 323 322 318 317 319 320 320 324 325 325 322 318 317 316 317 318 318 317 316 313 309 305 303 303 302 300 299 299 299 298 298 297 296
322 323 322 324 320 319 320 323 323 317 319 319 317 318 316 315 317 318 318 324 323 322 318 316 316 317 317 317 316 315 312 307 304 304 303 301 300 300 300 299 298 298 297 296
322 319 317 318 320 322 321 320 318 323 318 319 315 317 315 315 316 317 318 319 322 321 317 316 315 316 316 315 315 315 310 306 305 304 302 301 300 300 300 299 298 298 297 296
322 322 318 318 320 322 323 321 320 318 316 317 317 319 315 314 315 315 316 317 318 320 319 317 316 316 315 315 314 314 310 307 305 303 302 302 301 301 300 299 298 297 297 296
321 320 321 322 323 322 322 323 322 319 319 318 318 319 317 315 315 314 314 315 317 315 319 317 316 314 315 314 312 312 310 307 305 303 303 302 301 301 299 298 298 296 296 296
321 324 323 323 322 321 320 319 319 319 319 317 317 316 315 314 313 313 312 315 315 314 313 317 317 315 315 313 311 310 309 307 305 303 304 302 300 299 298 297 297 295 295 295
322 318 317 322 316 316 313 315 318 319 318 318 316 314 315 314 315 313 313 313 315 314 314 315 316 316 314 314 312 310 309 307 305 305 303 299 298 297 296 296 295 294 294 294
320 320 314 316 313 310 315 316 315 317 316 314 314 315 314 313 312 313 311 313 313 313 313 313 314 316 315 315 314 312 308 306 306 303 298 298 297 295 295 294 293 293 294 293
323 315 318 314 315 315 315 316 317 315 315 314 313 313 314 314 313 315 314 312 312 312 311 313 314 315 315 314 313 309 306 305 299 296 295 295 295 294 294 293 293 293 293 293
317 315 312 314 316 312 316 315 315 315 314 315 314 314 314 312 310 316 314 313 311 312 305 302 303 304 307 307 305 300 296 296 295 295 295 295 294 293 292 293 293 293 292 292
313 312 312 310 310 315 319 315 314 311 313 316 315 315 315 316 314 314 315 313 309 303 299 298 298 297 296 297 296 295 294 295 295 296 295 293 293 293 293 292 293 292 292 292
316 316 312 314 317 319 316 314 312 316 315 314 314 314 314 314 314 314 313 309 302 299 298 296 295 295 295 295 295 295 294 294 294 294 293 293 293 292 292 292 292 292 291 291
319 319 316 317 315 316 314 313 316 313 313 314 314 314 314 315 314 313 307 300 299 297 295 295 295 295 295 296 297 295 294 297 298 296 293 293 292 292 292 292 291 290 290 290
319 318 316 315 315 316 313 313 313 314 314 315 313 312 312 312 307 302 300 299 298 296 296 296 295 294 294 294 294 294 293 293 292 292 292 291 291 291 291 291 290 291 290 290
317 316 316 316 316 316 317 315 315 313 312 308 305 304 305 302 301 300 299 297 296 296 295 295 295 294 294 293 293 293 292 292 292 291 291 290 291 291 291 291 291 291 291 290
316 316 312 310 317 316 315 312 310 309 307 306 304 302 301 300 299 298 297 296 295 295 294 294 294 294 294 293 293 293 292 292 292 291 291 290 290 291 291 291 291 291 291 290

GFSCGP_925_thetae_027.txt.gz
Theta_e
315 314 315 316 315 317 318 318 316 315 314 321 321 318 324 324 327 325 324 324 323 332 330 330 331 331 332 331 331 333 329 328 328 324 321 321 320 318 315 314 314 313 313 311
316 318 316 317 318 319 320 319 318 316 313 316 314 319 326 325 327 325 324 323 323 329 327 330 331 331 330 330 331 331 328 328 327 324 322 321 320 316 315 313 312 311 311 310
316 317 317 319 319 320 319 319 317 318 312 313 315 318 328 326 322 322 321 323 322 324 324 325 329 330 328 328 330 330 328 327 326 324 323 322 319 317 313 312 310 309 309 309
316 317 319 320 320 319 320 317 317 318 313 314 312 315 316 325 326 323 321 322 323 322 323 323 327 328 327 326 328 329 328 328 327 325 324 323 319 313 311 310 309 309 308 307
318 319 319 320 319 318 318 317 318 318 317 316 318 316 315 321 325 325 323 321 322 321 322 323 323 327 327 327 326 328 328 327 327 326 325 324 318 314 312 310 309 306 303 300
316 317 318 318 319 319 317 319 317 317 317 318 321 318 316 319 322 325 324 321 322 317 320 324 326 328 328 328 327 328 327 327 327 327 324 324 320 314 311 309 307 303 300 298
317 318 318 319 319 317 317 316 316 317 319 319 321 321 318 316 316 316 318 320 322 319 321 326 328 329 328 328 328 328 328 327 327 327 324 324 322 316 313 310 305 300 298 297
317 319 320 320 319 320 320 316 317 318 320 320 323 324 321 319 317 316 315 316 317 319 323 327 329 329 328 328 328 328 327 327 328 327 325 325 322 316 312 308 302 299 298 297
320 320 321 321 321 320 321 319 317 321 319 323 319 321 315 318 320 319 319 322 321 321 324 327 328 329 328 327 328 329 327 328 326 327 325 319 316 314 310 303 300 298 297 296
318 319 321 321 320 320 320 318 320 319 325 325 320 317 317 321 321 321 320 322 323 323 324 323 323 322 324 327 328 327 325 324 321 321 321 315 311 309 306 302 299 298 297 299
319 315 317 321 321 319 319 318 317 317 316 318 319 318 311 317 320 320 317 318 321 322 323 323 322 320 321 323 324 322 318 315 315 315 313 310 307 305 302 301 299 297 298 296
318 316 317 319 318 318 319 319 316 316 316 314 314 317 313 312 315 315 315 317 317 321 322 322 321 318 315 315 316 316 313 312 311 309 308 306 303 302 301 299 299 298 298 297
318 318 317 318 318 317 320 317 318 315 312 316 315 315 312 311 311 311 314 315 317 320 319 319 317 316 314 313 313 312 310 308 306 308 307 304 303 302 301 299 299 298 298 297
316 315 317 319 318 317 320 320 317 317 315 315 314 315 314 314 312 312 309 311 317 319 318 316 315 315 316 315 313 312 310 307 307 307 306 303 303 302 300 300 299 298 298 297
318 318 315 314 314 319 319 319 318 317 316 316 316 315 315 313 311 309 308 312 316 318 316 314 313 313 315 315 314 312 310 308 309 306 305 304 304 302 301 300 299 298 297 296
316 316 318 320 317 317 319 317 316 316 317 315 315 315 312 311 311 310 310 310 311 315 316 313 312 312 313 314 314 311 310 310 308 306 305 303 302 301 300 299 297 296 296 295
316 314 314 317 314 314 315 314 315 315 314 315 315 313 312 313 311 309 309 310 311 312 313 314 313 311 313 313 314 312 312 310 307 303 301 300 300 299 298 295 294 294 295 296
313 312 309 312 310 315 316 314 313 313 312 312 312 312 313 312 310 309 308 308 308 307 306 303 302 309 312 312 311 311 309 305 302 301 300 300 299 295 295 296 295 296 297 295
316 310 312 314 314 314 315 312 312 313 314 312 312 312 312 312 311 311 308 304 302 300 298 298 298 299 303 305 307 307 303 300 298 295 295 294 295 295 296 297 297 297 296 295
311 311 315 309 313 315 314 312 312 311 313 312 311 312 312 310 308 312 307 301 298 297 296 296 296 298 298 297 298 297 294 294 294 294 295 296 297 297 297 298 298 295 293 292
311 308 312 305 308 309 309 312 309 312 311 312 310 311 310 311 309 306 300 297 296 296 296 296 296 296 296 296 296 294 294 294 296 297 297 296 297 297 297 296 294 292 292 292
316 313 308 307 307 314 311 312 310 309 311 311 311 311 311 308 303 300 298 296 296 296 295 295 295 295 295 296 296 295 296 297 297 297 298 298 298 297 295 293 292 292 291 291
315 313 313 313 312 310 311 311 310 310 311 309 310 311 310 304 301 299 296 296 295 295 295 295 295 295 295 296 296 295 296 297 297 296 294 293 292 292 291 291 291 291 291 290
315 313 313 312 314 314 313 312 311 310 310 310 311 309 305 300 299 297 296 296 295 294 294 294 294 293 293 293 293 293 292 292 292 292 291 291 290 290 289 290 290 290 290 290
313 314 314 313 315 314 313 311 306 304 303 302 301 301 300 299 298 297 296 295 294 294 294 294 293 293 292 292 292 292 292 291 291 291 291 291 291 290 290 290 289 289 290 290
312 313 312 312 313 312 313 307 305 304 303 301 300 299 298 297 296 295 294 294 293 293 293 293 292 292 291 291 290 291 291 291 291 290 290 290 290 290 290 289 290 291 290 290

GFSCGP_925_thetae_030.txt.gz
Theta_e
314 314 314 313 314 316 317 317 317 314 314 324 323 321 323 323 326 328 328 329 331 331 329 327 326 324 326 328 330 330 330 330 327 326 326 323 321 319 318 318 317 315 315 312
315 317 314 314 315 317 318 318 317 316 312 319 319 321 322 323 327 328 326 326 327 328 328 327 327 326 327 329 330 330 330 330 328 327 326 324 319 318 317 315 314 313 313 310
316 315 316 318 317 319 318 318 317 317 313 312 316 317 326 324 323 323 323 323 324 323 328 328 328 329 329 330 331 330 330 331 330 326 323 320 319 317 314 312 311 311 310 309
316 315 318 319 319 318 319 317 316 317 312 313 313 315 314 324 326 323 321 320 321 321 325 326 328 329 328 328 329 329 330 330 327 325 323 321 320 315 313 312 310 308 308 308
317 318 319 319 318 318 318 317 317 317 316 316 318 316 314 321 326 326 325 319 319 320 320 323 324 328 328 328 329 328 328 327 326 326 325 322 319 315 314 310 308 308 306 303
315 315 317 316 317 317 317 318 314 315 315 318 319 317 316 317 324 327 326 323 319 318 318 319 322 326 328 327 327 327 328 328 326 325 324 322 319 315 311 308 307 305 302 300
317 317 317 318 319 317 316 314 315 316 319 319 319 320 318 315 314 318 321 321 319 318 318 320 321 323 326 327 326 326 327 326 326 325 323 323 322 319 313 309 307 302 299 297
317 316 319 319 318 317 318 316 316 316 318 317 320 320 317 317 315 314 313 312 314 317 318 322 324 324 325 326 326 326 325 325 326 326 325 324 324 320 315 311 308 305 301 299
316 317 319 320 320 318 318 318 314 319 317 321 317 317 313 316 318 318 317 318 314 316 317 322 325 326 326 326 327 327 325 325 325 326 326 325 323 321 316 311 308 304 301 298
317 317 319 320 319 319 318 316 319 317 323 324 318 317 314 315 318 320 319 320 320 318 319 322 324 327 327 327 327 327 326 326 326 326 326 326 323 321 315 311 305 301 299 298
315 314 314 320 318 316 317 318 315 316 315 318 317 316 311 313 315 318 316 316 317 320 320 322 323 326 326 327 327 326 327 327 326 326 325 325 321 316 311 308 305 303 299 297
316 313 312 316 316 316 316 316 315 316 317 313 313 315 312 309 310 312 312 313 314 318 319 320 320 322 322 323 324 326 324 321 322 323 320 317 314 309 310 308 304 300 298 299
316 315 314 315 315 316 318 316 315 313 311 315 313 316 310 310 310 310 311 312 314 317 319 318 317 316 317 318 318 319 316 317 315 314 313 311 308 308 307 305 301 299 298 297
315 315 314 316 314 315 319 317 316 316 314 315 313 315 313 312 311 310 309 308 310 315 318 317 316 315 315 315 317 316 315 313 311 310 309 308 307 306 305 302 300 298 298 297
314 315 314 314 315 316 317 318 315 316 315 316 316 313 314 312 311 310 308 307 311 317 317 316 315 313 314 315 314 313 312 309 307 307 307 306 304 302 300 300 299 298 297 297
314 316 314 318 317 317 318 316 315 315 315 314 313 314 310 310 310 309 310 311 312 316 316 315 313 312 313 315 315 315 313 312 310 308 305 303 301 300 300 299 298 297 296 296
314 313 313 318 314 314 315 314 315 314 313 314 315 313 310 312 311 310 309 310 310 308 306 306 308 309 311 312 314 313 311 309 308 306 302 301 301 300 299 298 297 296 294 295
310 311 310 312 311 315 315 313 313 313 312 311 311 311 310 310 309 307 306 307 305 303 301 299 299 301 304 308 309 309 308 307 304 302 301 300 299 297 295 294 294 297 298 298
312 309 311 314 314 313 315 312 312 312 312 310 310 311 310 309 309 309 302 300 299 298 296 296 297 298 300 302 302 302 299 298 298 296 296 295 295 294 295 297 297 297 297 297
310 308 313 307 313 315 314 313 309 310 312 309 311 311 311 309 305 310 301 298 296 295 295 296 297 297 297 297 299 298 294 294 294 294 295 296 297 297 296 296 296 296 296 296
311 308 312 303 308 312 310 310 308 313 313 309 310 310 309 309 306 302 297 296 295 295 295 295 295 294 294 295 295 294 295 296 297 296 296 296 296 296 296 297 297 296 295 293
319 315 309 307 307 318 308 311 311 310 309 309 308 308 308 304 300 298 297 296 295 294 294 295 294 294 295 295 296 296 296 297 297 297 298 298 297 296 295 293 293 292 291 291
317 314 314 314 314 311 308 310 308 307 309 309 309 309 307 302 300 297 296 295 294 293 293 294 294 295 296 296 296 296 295 294 293 293 292 291 291 290 290 290 290 290 290 290
313 310 312 312 312 310 311 311 309 309 309 307 308 308 304 301 298 296 295 294 293 293 293 293 293 292 291 292 291 291 291 291 291 290 290 290 290 290 290 290 290 289 289 289
311 312 312 310 314 314 312 311 308 305 304 303 301 301 299 298 296 296 295 294 293 293 293 292 291 290 290 290 290 290 291 291 290 290 289 289 288 288 288 287 287 287 287 287
311 312 313 314 312 312 310 307 304 304 302 301 300 298 297 297 296 295 294 293 292 292 292 291 290 289 289 289 288 287 287 288 287 286 285 284 283 282 282 282 282 282 282 283

GFSCGP_925_thetae_033.txt.gz
Theta_e
315 318 318 315 316 316 317 318 319 318 315 324 326 323 327 331 333 333 332 332 331 330 327 327 327 325 325 324 325 326 327 327 329 326 322 324 326 322 321 320 320 321 319 314
318 320 317 314 316 317 319 319 319 317 314 320 319 323 323 327 331 330 331 332 332 332 331 329 327 325 325 326 326 328 328 329 329 326 322 323 324 321 319 318 318 316 314 312
319 317 315 317 317 319 319 320 319 319 314 314 317 320 325 325 326 327 328 329 330 331 332 331 328 326 326 326 328 328 329 329 328 326 325 325 323 319 315 313 314 314 312 310
318 316 317 318 318 318 320 317 317 317 316 317 315 319 315 326 328 327 328 328 329 328 328 331 330 328 327 327 328 329 329 329 328 326 324 324 321 318 315 312 311 311 310 309
320 318 319 320 319 317 320 317 318 318 317 320 320 319 319 322 328 330 329 327 327 327 327 328 330 330 329 328 328 328 328 327 327 326 324 321 320 318 316 312 310 309 308 308
317 314 317 318 317 317 316 318 315 317 319 323 320 321 321 320 324 326 328 328 326 325 324 325 327 329 330 329 328 328 328 327 326 325 323 321 320 318 315 312 309 308 306 304
317 318 316 317 319 318 317 319 322 318 323 323 321 322 322 319 317 319 323 326 327 326 324 324 324 325 328 327 327 328 328 327 327 327 323 322 320 319 316 314 310 307 303 301
318 319 319 318 319 320 319 320 324 320 321 319 320 323 319 319 318 317 317 316 318 324 324 324 324 324 326 327 327 328 327 326 320 321 323 320 319 319 318 317 312 310 306 301
319 318 317 319 319 318 319 321 317 322 320 325 321 319 318 315 317 320 321 319 319 317 320 322 323 323 324 326 326 327 328 327 325 323 322 321 320 322 320 319 311 308 304 301
318 319 319 320 319 319 319 318 323 321 324 325 321 320 320 318 318 319 321 322 322 320 319 320 322 324 325 326 326 327 327 327 326 323 321 322 324 323 320 314 310 306 303 301
317 318 316 320 321 320 320 321 318 319 320 324 323 321 317 318 316 320 318 318 320 322 323 322 323 325 326 326 326 326 326 326 324 323 322 323 323 321 319 316 308 305 304 300
317 319 319 319 316 316 317 320 320 325 321 318 319 321 316 316 313 314 317 314 316 318 322 324 325 326 326 326 325 325 324 323 322 323 324 323 322 319 315 312 308 306 303 299
317 317 319 318 317 317 320 318 316 316 316 320 328 322 313 313 314 314 313 313 314 318 322 323 324 325 324 323 321 319 320 318 323 321 318 318 316 312 309 308 308 304 302 300
316 317 319 319 318 318 320 318 317 320 322 322 320 320 318 318 316 316 315 313 311 312 319 323 323 321 320 319 319 320 319 318 313 310 309 308 307 307 306 305 302 301 300 298
318 319 316 315 314 316 318 319 318 319 320 324 322 317 318 317 317 315 311 311 312 315 319 320 321 320 318 317 316 316 314 315 314 310 308 308 308 304 302 300 300 299 298 297
315 319 315 316 316 315 318 317 318 317 316 317 316 317 315 314 312 312 311 315 316 315 316 315 315 316 316 316 316 314 312 311 310 308 306 303 303 301 300 299 299 297 296 296
317 317 318 319 315 318 320 318 317 317 316 318 320 319 314 313 313 312 314 313 311 309 309 309 310 309 310 311 311 312 310 309 306 304 303 302 302 301 300 299 298 296 295 294
315 316 315 319 314 324 320 313 315 317 316 314 314 314 313 312 310 309 310 310 307 305 304 303 303 303 303 304 305 305 304 303 302 302 301 300 299 298 297 296 295 296 297 297
314 314 316 322 320 317 315 314 316 317 318 314 314 312 312 311 311 308 303 303 302 301 300 299 299 299 299 299 299 299 299 298 298 297 297 297 296 296 296 297 297 297 296 296
310 312 322 313 321 323 319 314 311 312 318 313 312 313 313 312 319 315 303 300 299 298 298 298 297 297 297 296 297 297 297 297 296 297 296 296 296 297 297 296 296 296 296 297
316 315 319 313 322 319 314 311 311 319 321 313 313 314 314 313 312 308 300 299 298 297 296 296 296 296 296 297 297 297 297 297 297 297 297 297 297 296 297 297 297 296 295 294
322 321 320 314 320 324 311 309 317 318 311 312 313 313 313 307 302 301 300 298 297 297 296 296 296 296 296 297 297 296 296 297 297 297 296 294 293 293 292 291 291 290 290 290
323 320 322 321 324 318 311 315 311 310 312 311 313 311 308 304 302 300 299 298 297 296 296 296 296 296 295 295 295 293 292 292 291 291 290 290 290 290 290 290 290 290 289 289
313 311 318 318 316 314 313 310 311 310 312 310 311 310 307 305 301 299 297 296 296 295 295 294 293 292 291 290 290 290 290 290 290 290 289 288 288 288 287 287 287 287 287 286
316 314 314 315 313 314 314 312 312 309 309 308 307 307 305 301 299 298 297 296 295 294 292 292 291 291 289 289 288 289 289 289 288 287 286 285 284 284 284 283 283 283 283 283
313 316 317 319 315 316 315 314 308 309 308 306 304 301 300 300 299 297 296 294 293 292 291 291 290 289 287 286 285 285 286 286 285 284 283 282 282 282 282 281 281 280 280 280

GFSCGP_925_thetae_036.txt.gz
Theta_e
320 320 319 317 318 320 320 320 320 321 322 324 323 323 329 333 332 331 331 330 327 326 326 326 325 324 323 324 325 325 326 328 330 327 323 323 326 327 328 328 326 324 321 319
321 320 318 317 318 320 321 320 320 320 319 321 321 322 325 332 335 334 333 333 332 330 327 328 328 325 324 324 325 326 328 329 330 327 324 325 327 327 327 325 323 322 319 318
321 320 320 319 321 321 322 320 321 321 320 320 320 322 325 327 330 332 332 331 331 331 332 331 330 330 327 325 326 326 328 330 331 329 325 325 327 325 323 321 320 318 317 316
322 321 320 321 321 321 321 321 321 321 321 320 320 321 322 325 328 329 331 331 331 331 330 331 332 330 330 328 327 327 328 330 331 330 326 325 324 326 323 321 319 316 314 314
321 321 321 322 321 321 321 321 322 322 322 322 322 320 321 322 326 327 330 330 330 330 330 331 331 332 330 329 328 329 329 330 331 330 328 327 326 327 325 320 317 315 313 312
320 319 321 321 320 321 321 322 321 323 323 323 321 322 321 322 321 322 325 329 330 330 330 331 330 330 331 330 329 330 330 330 331 330 327 326 326 327 323 319 317 314 313 311
321 320 320 320 321 321 321 322 324 323 324 323 323 323 322 321 320 321 322 324 328 330 330 330 331 331 331 332 332 331 331 330 330 329 325 324 326 326 321 319 316 312 308 307
320 321 319 320 321 321 322 322 323 323 322 320 323 321 320 321 321 322 323 323 323 327 330 330 330 329 330 332 333 333 332 330 328 326 326 326 326 325 322 321 313 310 311 309
320 319 319 320 321 321 322 322 321 325 326 324 321 321 321 319 321 322 323 324 324 323 324 327 329 329 329 330 332 333 332 330 328 326 321 322 323 324 322 320 312 312 309 307
319 319 321 322 322 322 323 322 323 324 325 324 321 321 320 320 319 319 320 321 324 325 323 323 324 325 328 328 330 332 332 332 330 323 323 324 324 323 322 320 314 311 309 309
319 319 323 323 324 322 323 323 323 323 324 323 322 321 320 320 319 320 321 321 322 324 326 326 326 325 326 327 329 330 331 331 331 327 326 325 325 324 323 321 315 313 311 308
319 320 321 321 320 321 321 320 323 324 322 323 326 322 320 320 321 320 321 319 321 323 324 327 328 328 329 329 329 329 330 330 330 330 329 328 326 324 322 319 315 313 310 307
320 320 321 320 319 320 320 320 320 322 322 323 330 322 320 320 321 320 320 320 318 321 323 327 329 330 330 330 330 330 330 330 329 328 327 325 322 320 319 315 313 310 309 307
319 319 320 321 319 318 321 320 320 321 324 323 324 321 321 321 321 321 321 320 319 318 320 326 328 329 328 328 327 327 327 325 322 320 321 320 318 315 313 312 311 310 308 307
321 319 319 318 317 317 317 318 320 321 321 323 323 322 321 320 321 320 319 317 318 318 320 324 327 328 326 326 325 325 322 320 319 318 318 317 315 314 313 312 309 307 304 301
320 320 319 320 318 318 318 318 318 321 320 321 321 321 320 320 320 320 318 318 320 321 322 323 324 324 324 323 322 320 318 316 315 314 314 310 309 308 306 304 301 299 298 297
322 322 321 321 320 320 322 321 319 320 321 322 322 321 320 320 320 320 319 320 320 319 319 318 318 318 317 317 317 316 314 312 312 310 309 307 306 304 302 299 297 296 295 295
323 322 323 323 321 330 320 320 320 320 321 321 321 320 320 319 318 317 318 318 316 315 314 314 313 312 312 311 311 310 310 309 308 307 306 304 303 301 300 298 297 296 295 295
322 323 324 330 324 321 319 318 320 321 321 321 321 320 319 317 315 314 312 314 312 311 310 309 309 308 308 307 307 306 305 305 304 303 302 301 301 300 299 298 298 298 299 299
318 320 327 321 325 329 321 320 319 319 323 320 320 320 318 317 321 319 310 308 308 307 307 306 306 305 305 304 304 304 304 303 302 301 300 300 300 300 300 299 299 299 299 297
321 321 327 326 329 324 321 318 317 322 324 321 320 319 319 319 319 315 309 308 306 305 304 304 304 304 304 303 303 303 302 301 300 300 300 300 299 299 298 298 297 296 296 295
324 326 327 326 331 330 318 316 321 323 322 320 320 320 320 317 313 310 308 306 305 304 303 303 303 303 302 302 302 301 301 300 299 297 295 294 294 293 294 293 293 292 292 293
325 324 326 325 324 322 318 321 319 320 320 319 319 318 319 313 311 309 307 306 305 304 303 302 302 301 301 301 300 299 297 296 295 294 293 293 292 292 292 293 292 292 292 292
319 316 323 322 322 321 320 318 317 316 318 317 317 317 315 312 310 308 306 305 304 303 302 301 299 298 296 296 295 295 294 293 293 292 292 291 290 290 289 289 288 287 287 287
320 316 321 323 322 318 318 319 319 316 315 315 315 316 314 311 309 307 306 304 303 302 300 299 297 296 294 293 293 292 292 292 291 290 289 288 287 286 286 285 285 284 284 282
317 320 324 327 322 322 322 321 318 317 315 315 315 314 312 310 308 306 304 302 301 299 298 297 295 294 292 291 290 289 290 290 289 287 286 285 285 285 284 284 284 282 280 279

GFSCGP_925_thetae_039.txt.gz
Theta_e
321 322 321 319 319 319 321 320 321 324 325 325 325 325 328 332 330 330 329 326 326 326 325 326 323 323 323 323 321 322 324 325 325 325 323 321 321 323 327 327 328 328 326 325
322 323 321 320 318 318 321 321 320 321 321 321 322 322 323 332 332 331 330 329 327 326 326 326 326 323 323 324 323 322 323 325 327 327 323 321 322 323 325 327 328 328 327 324
323 322 321 320 318 319 320 321 321 321 322 321 321 321 321 326 331 332 330 329 328 327 327 327 326 326 325 325 326 326 326 327 329 328 325 323 324 326 327 327 327 327 326 323
322 322 320 318 319 320 320 320 321 321 322 323 322 322 324 323 327 331 332 330 329 329 328 327 328 327 326 326 326 327 328 328 329 329 328 324 325 328 328 328 326 325 323 322
322 322 321 320 320 320 321 322 321 322 323 323 322 321 323 321 323 325 328 330 329 328 329 328 328 328 328 327 327 327 328 328 329 329 329 327 326 327 327 327 326 324 320 318
322 321 321 321 321 321 321 323 322 323 323 325 322 323 322 323 321 321 324 327 329 328 328 328 327 328 328 328 329 328 328 328 328 332 330 329 328 327 328 328 325 322 320 318
321 322 320 321 322 322 322 323 325 325 326 326 323 323 322 324 321 321 321 324 328 328 328 328 328 328 330 330 330 330 329 329 329 331 332 330 329 328 327 327 324 321 320 318
322 323 321 321 321 322 322 323 326 335 328 325 324 321 321 322 321 321 321 322 323 328 328 328 327 329 330 331 332 332 331 331 330 332 331 329 321 323 323 327 324 322 321 318
322 322 320 320 320 321 323 323 323 325 326 325 323 322 321 320 320 321 321 325 326 324 328 328 327 326 329 330 332 334 333 333 332 332 330 327 323 325 327 327 325 323 319 314
320 322 320 320 321 321 322 324 324 324 326 328 322 322 322 321 320 320 320 321 324 325 325 326 328 328 328 329 331 334 335 334 333 330 329 325 326 327 327 326 324 321 314 310
320 321 321 322 323 322 323 325 323 324 325 327 328 323 322 321 321 320 320 320 321 322 326 326 326 326 327 329 330 332 335 335 334 331 330 325 325 325 325 325 324 318 313 310
320 320 322 323 320 320 322 323 324 329 325 325 326 325 322 321 321 321 320 321 321 322 323 327 328 328 327 328 329 331 333 334 333 333 329 326 327 327 325 324 323 318 314 313
321 322 324 322 322 322 323 324 323 324 324 325 333 325 321 321 320 320 320 321 321 321 322 327 329 331 330 330 330 331 332 332 332 333 329 329 328 327 326 323 321 317 315 313
322 320 321 324 321 321 321 320 321 321 328 325 324 322 322 321 321 321 321 322 321 321 321 324 329 331 331 332 332 332 332 332 332 332 331 330 324 322 320 317 315 314 312 310
321 324 320 320 319 319 320 321 320 321 321 324 323 322 322 322 321 320 322 321 320 320 320 322 328 330 330 331 330 330 330 329 327 326 326 324 321 319 316 314 313 312 310 309
321 322 322 320 319 318 318 318 318 318 319 319 319 320 321 321 319 319 320 320 321 322 323 324 327 329 329 329 328 327 325 324 323 322 321 319 318 316 315 313 311 309 306 302
321 324 323 323 319 320 322 319 319 319 319 319 321 321 321 321 320 320 320 320 322 323 323 325 326 327 326 325 323 321 319 318 317 315 313 312 311 309 307 304 302 300 299 298
323 323 324 326 327 328 321 319 320 319 319 320 319 320 321 321 320 321 321 321 322 322 322 322 321 320 319 318 317 316 315 314 313 311 310 309 308 305 303 302 300 299 298 298
321 325 326 329 327 321 319 319 321 320 320 320 321 321 321 320 321 320 319 321 320 320 319 317 316 315 314 313 313 312 311 310 309 308 307 306 305 304 303 302 301 300 299 299
321 326 329 326 326 327 321 320 320 320 324 320 320 320 321 320 323 321 318 318 317 315 314 313 313 312 311 310 310 309 308 307 306 305 305 304 304 303 302 301 300 300 300 299
324 326 331 329 327 323 320 320 321 325 322 322 320 321 320 320 321 321 316 315 313 313 312 311 311 310 309 309 308 308 306 305 304 304 304 303 302 301 301 300 300 299 298 298
324 326 330 328 329 331 321 321 322 323 324 323 323 322 321 320 320 317 315 314 313 312 310 310 310 309 308 308 307 306 305 304 303 302 301 300 298 298 298 297 295 294 295 295
321 323 327 325 325 324 323 323 322 321 321 323 323 321 320 322 318 316 314 313 311 310 309 309 308 307 307 306 306 305 303 301 300 299 297 296 295 295 295 295 294 294 293 292
320 320 324 323 323 322 323 322 321 322 323 323 322 321 320 321 317 315 313 312 311 310 309 308 307 306 305 304 303 302 300 299 297 296 295 294 294 293 292 291 290 290 290 289
321 321 321 321 319 320 322 322 323 322 321 320 319 319 320 319 316 314 313 312 311 309 308 306 305 303 301 300 299 298 297 296 295 294 293 292 290 290 289 288 287 286 284 282
320 320 323 326 321 325 323 322 321 322 321 319 319 318 319 317 315 314 312 311 309 308 306 304 302 300 299 297 296 296 295 294 292 291 290 289 289 288 287 287 285 283 282 280

GFSCGP_925_thetae_042.txt.gz
Theta_e
318 318 318 319 321 319 319 321 324 326 326 326 328 332 332 332 328 327 324 320 323 325 325 327 323 320 319 319 316 316 314 314 317 319 323 323 321 322 322 323 327 328 326 327
319 321 321 321 321 320 319 319 321 321 323 322 321 322 331 330 330 329 326 324 324 326 327 325 324 323 324 321 319 321 319 321 320 322 319 322 320 320 321 324 326 327 327 326
320 321 323 322 320 319 318 319 320 323 323 323 321 321 322 331 329 330 329 328 326 326 329 326 325 325 324 321 321 321 322 323 324 325 324 323 322 321 324 325 325 327 327 326
321 321 322 322 321 319 318 319 321 322 322 322 323 325 323 329 328 330 329 329 327 326 327 328 326 325 324 325 323 322 323 324 325 326 328 324 323 324 326 327 327 326 327 327
322 322 321 322 319 318 319 323 323 322 321 324 323 322 320 323 325 330 331 330 329 328 327 327 328 327 325 326 326 325 324 325 326 326 328 328 324 326 326 327 326 327 326 326
321 322 321 322 320 320 321 323 324 322 322 327 324 322 325 325 325 324 327 331 330 328 328 327 327 327 328 326 327 328 328 328 328 329 328 329 325 327 328 327 327 327 325 323
320 321 321 321 320 321 321 322 325 326 327 329 324 323 324 325 325 324 324 324 330 329 328 328 328 328 329 328 328 328 329 329 329 330 330 328 329 328 327 326 326 326 325 321
322 323 321 321 321 322 322 322 326 335 335 330 326 325 322 324 322 322 321 322 325 329 328 328 327 328 329 330 330 329 329 329 329 330 331 329 327 328 328 327 326 326 324 321
322 323 320 321 320 322 323 324 323 331 331 332 331 324 321 322 320 320 320 322 324 325 328 329 328 327 330 330 331 331 331 329 330 330 333 331 322 329 329 327 325 326 325 322
321 323 322 321 321 321 321 323 327 327 332 334 324 322 323 323 320 321 320 322 325 325 325 328 327 327 328 331 332 332 331 331 331 331 333 332 328 329 326 325 327 327 324 323
321 322 323 322 321 321 321 322 325 327 327 331 331 326 324 324 324 321 321 322 323 324 326 327 327 326 327 329 331 334 334 333 333 332 333 332 330 327 327 328 328 326 325 323
320 323 324 323 321 321 321 322 323 329 327 330 337 328 323 324 323 322 322 322 322 322 323 327 328 327 326 327 329 336 336 335 334 334 333 331 329 326 326 326 326 326 324 321
321 321 325 323 323 322 322 321 323 324 327 330 333 328 322 322 321 321 321 321 322 322 322 326 328 329 329 328 328 332 334 336 334 333 332 332 327 327 326 325 325 324 321 317
323 322 323 326 323 324 323 321 324 326 329 328 328 326 325 324 323 322 323 321 321 323 322 323 328 330 331 330 330 331 333 333 334 333 332 329 327 328 327 325 323 320 317 315
323 324 322 322 321 321 323 321 321 323 326 326 326 323 321 322 324 322 323 323 322 321 320 322 326 331 332 333 332 332 333 332 332 332 328 326 325 323 320 319 318 316 314 313
322 323 324 325 322 320 320 321 322 320 320 320 321 322 322 321 321 321 322 321 321 321 320 321 323 330 332 332 332 331 328 327 326 326 322 321 320 318 316 315 313 312 311 309
322 324 325 326 323 322 322 321 320 321 320 319 320 321 320 320 321 322 322 320 320 321 323 324 325 330 330 330 329 327 325 324 323 320 318 318 317 315 312 308 307 305 303 302
323 323 324 327 326 325 320 320 320 319 319 319 320 320 320 320 320 322 321 321 322 323 324 325 327 328 327 326 324 322 321 319 316 315 313 312 310 307 304 303 301 300 299 299
321 325 329 328 326 322 319 320 320 321 320 320 320 319 320 320 321 323 321 321 324 324 323 323 323 323 322 320 318 317 315 314 313 311 310 309 307 304 303 301 300 299 299 298
316 318 324 329 327 327 323 320 320 320 321 321 320 321 321 322 326 323 321 322 322 321 321 320 319 317 316 315 314 313 311 310 309 308 307 306 305 304 303 302 301 301 301 300
321 322 324 328 328 327 322 320 319 322 324 323 323 322 322 324 324 323 321 321 320 319 317 316 315 314 313 312 311 310 308 308 307 306 305 305 304 302 301 300 300 300 299 298
323 324 326 327 329 328 322 322 321 324 322 325 323 324 324 322 323 321 320 318 317 316 315 314 313 312 311 310 309 308 307 306 305 305 304 303 301 301 301 300 299 298 297 296
323 320 323 324 326 320 320 321 323 324 325 326 324 324 324 324 322 319 318 316 315 314 313 312 311 311 310 309 308 307 306 305 303 302 301 300 298 298 297 296 295 295 295 293
316 319 320 319 317 317 319 322 323 322 324 323 323 324 323 323 321 318 316 315 314 313 312 311 310 310 309 308 307 305 303 302 301 299 297 296 295 294 294 292 291 291 290 289
318 319 320 321 319 317 318 319 321 323 324 323 322 321 321 322 320 317 316 314 313 311 311 310 309 308 307 306 304 302 301 299 298 296 295 293 292 291 290 288 288 288 285 286
317 318 322 322 319 324 322 322 321 322 321 320 322 321 320 320 320 317 315 313 312 311 310 309 308 306 304 303 301 299 298 297 295 293 292 290 290 289 289 286 283 283 282 281

GFSCGP_925_thetae_045.txt.gz
Theta_e
316 315 315 313 315 318 318 317 318 321 323 325 329 327 324 322 326 324 325 324 328 327 322 317 316 316 315 316 316 314 314 313 313 313 312 313 313 312 313 317 318 319 322 323
317 317 316 317 317 318 320 318 316 320 324 324 322 328 324 324 326 322 319 325 323 326 324 319 317 317 315 316 316 314 313 313 313 314 313 314 316 319 320 319 321 321 318 323
317 318 318 318 320 321 319 317 317 319 321 321 319 320 328 328 329 325 318 319 321 324 326 323 318 317 317 315 315 314 313 313 314 315 317 321 323 321 321 321 320 319 322 325
318 318 319 319 321 319 318 317 319 322 321 321 320 323 331 332 331 328 324 319 320 323 325 324 321 321 320 318 316 315 314 315 316 319 322 321 322 320 320 320 320 321 322 326
318 319 319 320 321 320 320 320 321 322 322 319 319 324 323 331 331 329 327 325 322 323 325 324 322 323 322 320 318 319 320 318 321 322 322 322 323 322 320 320 323 324 325 325
317 317 318 319 321 320 318 322 323 323 321 321 320 321 320 328 325 328 327 327 324 324 326 323 324 323 323 320 319 319 321 321 322 323 324 326 327 322 323 324 325 326 326 327
319 318 319 319 320 320 318 321 323 323 322 322 328 328 322 321 322 327 325 327 326 323 326 325 323 323 323 322 321 320 321 322 323 324 326 325 325 326 323 324 326 326 325 326
320 321 319 319 319 319 318 319 323 326 328 330 328 330 322 322 320 320 320 327 326 325 324 325 325 324 323 323 324 323 323 322 323 325 324 325 325 326 326 326 326 326 325 324
319 319 319 319 319 319 321 321 320 330 330 329 329 327 323 322 319 317 317 317 322 325 323 324 325 325 325 324 324 325 325 325 326 327 328 327 327 328 327 326 327 326 325 325
319 321 320 320 318 318 319 321 325 329 332 333 331 330 327 322 322 319 317 316 318 319 324 323 323 325 326 326 325 325 326 327 326 327 329 328 329 328 329 328 327 326 325 325
317 318 320 321 321 320 320 320 321 327 328 328 325 325 321 323 322 321 317 318 319 321 320 321 323 326 325 327 328 328 327 327 328 327 328 330 330 329 329 327 328 327 325 324
317 319 319 320 321 320 319 319 320 325 327 326 322 324 322 320 319 319 319 317 316 318 320 320 322 324 324 328 329 328 329 329 329 328 329 331 330 329 327 328 326 325 326 325
317 318 319 322 320 320 320 319 320 321 323 326 324 325 322 321 320 319 316 318 317 316 317 321 322 322 324 324 328 328 330 329 330 329 331 331 330 331 329 327 326 327 326 325
318 318 318 320 321 321 322 321 320 319 322 322 324 326 324 322 321 319 320 320 319 315 317 320 322 324 326 328 330 332 331 331 330 331 332 330 330 327 326 326 325 325 324 322
322 320 319 318 320 321 323 322 320 320 321 326 324 324 321 320 319 319 321 322 322 319 317 318 323 324 326 328 330 331 334 334 333 332 331 330 327 326 326 325 325 323 321 317
322 321 320 320 319 320 320 320 320 320 321 324 324 323 321 320 318 319 320 320 320 318 316 316 325 327 330 330 329 327 329 331 332 330 325 324 324 323 322 320 318 317 315 314
321 322 321 320 320 321 321 320 319 320 320 320 321 319 317 318 321 319 318 318 318 317 316 317 322 329 329 329 327 325 326 325 325 323 321 321 320 317 315 314 313 312 311 310
320 321 321 318 320 326 320 319 318 318 318 317 317 317 316 316 316 316 317 316 317 317 320 321 325 325 327 327 325 324 324 320 320 319 318 316 314 312 311 311 308 306 305 305
317 318 321 322 322 321 321 318 318 318 318 317 317 316 316 315 315 319 316 318 317 318 319 321 324 324 324 323 323 321 316 315 314 312 310 309 308 306 304 302 301 300 300 299
317 314 316 320 323 324 320 319 318 318 318 318 318 318 317 317 317 316 317 319 318 318 319 318 320 320 320 319 319 315 312 311 310 309 307 306 304 302 301 300 299 298 298 297
315 313 318 319 324 320 320 318 318 320 318 318 319 320 320 318 317 316 317 318 317 317 316 317 316 314 315 315 314 311 310 308 308 307 305 304 303 302 301 300 300 300 299 299
319 319 319 321 323 324 318 321 319 319 318 319 319 319 320 319 317 317 317 316 315 314 313 313 312 311 312 312 311 307 307 307 306 305 304 303 302 301 301 300 300 300 299 297
318 318 320 320 321 319 317 320 318 316 317 321 321 320 318 319 318 316 316 314 313 312 311 311 310 310 310 309 308 305 305 305 304 303 302 301 301 300 300 299 299 298 298 295
315 316 317 319 318 317 316 315 319 320 320 317 319 320 318 319 316 315 313 312 311 309 309 310 309 308 307 308 306 305 304 304 303 302 301 301 300 299 296 294 294 293 292 291
313 317 318 317 316 315 315 316 321 319 319 317 318 318 319 318 316 314 312 310 309 308 309 309 308 307 305 305 304 303 303 302 301 299 297 295 293 291 290 290 290 289 287 288
314 316 316 315 317 319 319 316 317 319 319 318 318 318 317 317 315 313 311 309 308 307 308 307 307 303 302 302 302 302 301 299 296 293 292 291 289 288 287 287 283 282 282 282

GFSCGP_925_thetae_048.txt.gz
Theta_e
315 315 315 313 312 315 316 316 316 315 319 326 325 324 321 323 324 322 321 324 325 323 318 317 316 316 315 316 316 316 316 318 318 315 317 317 317 317 316 315 314 315 317 321
315 316 315 315 314 315 316 316 317 315 320 323 323 326 324 321 324 321 322 325 326 323 318 317 315 315 315 316 316 315 315 316 315 314 314 314 315 315 315 314 314 314 314 318
315 316 316 316 316 317 317 317 317 316 320 320 319 321 325 323 324 323 322 323 326 324 320 317 316 315 315 315 316 315 314 315 315 315 314 314 314 314 314 314 314 314 316 317
316 315 316 317 317 316 317 318 317 320 319 319 317 319 326 325 326 327 322 323 324 326 322 318 317 316 314 315 315 314 314 313 313 313 313 313 314 314 314 314 315 315 318 321
319 317 317 318 318 317 319 319 318 319 319 319 319 319 320 324 330 329 322 320 321 325 324 319 317 316 315 314 314 314 314 314 313 314 314 314 317 319 320 320 320 318 319 321
317 316 315 316 317 318 319 320 320 320 320 322 321 320 320 331 330 330 327 320 318 321 325 322 318 317 317 315 314 314 314 313 314 314 315 317 321 320 321 320 320 319 318 318
315 316 316 316 317 317 317 319 322 323 323 323 325 326 323 320 327 328 328 326 320 318 322 325 320 319 318 317 314 314 314 314 314 315 316 318 321 321 320 319 318 320 321 322
317 319 317 317 317 318 317 317 320 323 326 324 325 325 323 321 321 320 326 326 325 321 321 323 322 321 322 319 318 315 316 317 316 317 319 320 321 323 322 322 322 321 321 323
318 318 317 316 317 317 318 319 318 326 327 326 324 324 321 319 319 317 320 322 324 323 322 324 322 322 322 321 319 317 317 318 318 318 320 321 322 323 324 325 324 323 323 325
316 319 318 317 317 316 318 319 323 325 329 327 327 328 326 324 319 319 316 320 323 323 322 324 323 322 323 322 321 318 317 318 318 320 321 322 322 323 324 324 325 325 324 325
314 316 318 318 319 318 318 319 321 324 324 325 326 323 319 322 321 319 317 314 316 321 322 322 323 323 323 322 322 322 321 321 321 321 322 322 323 324 325 325 326 326 325 326
314 316 317 316 317 318 317 318 319 325 326 323 320 324 319 319 318 317 317 316 315 317 318 321 321 323 324 324 323 322 323 323 323 323 324 325 326 327 327 327 327 325 325 326
321 317 317 318 317 317 319 318 318 320 321 323 324 325 320 318 318 318 317 316 315 314 317 319 320 322 324 324 325 324 324 324 325 326 325 326 326 328 327 327 328 321 325 326
321 320 317 319 318 318 320 320 318 319 318 319 321 321 321 320 318 319 318 316 317 314 314 319 319 322 323 322 325 326 326 326 325 326 327 327 327 328 327 328 327 324 322 325
324 324 319 317 317 319 319 319 320 320 319 320 319 322 321 320 318 318 316 318 318 317 314 316 320 321 321 323 324 324 326 326 327 327 327 328 327 327 328 327 327 326 325 325
321 324 321 319 318 317 318 320 320 320 319 318 318 321 320 320 316 316 318 318 318 317 315 314 320 321 324 327 329 329 327 327 328 328 328 328 326 325 324 326 326 325 323 321
321 321 321 320 318 319 319 319 319 318 318 320 322 321 319 318 317 317 317 317 317 316 313 312 319 324 326 328 329 327 328 329 329 328 327 322 323 322 321 322 322 321 317 315
319 317 320 319 317 323 319 317 317 317 317 316 316 317 316 316 315 315 315 317 316 314 313 312 321 325 327 326 326 326 325 325 324 322 320 319 317 316 316 317 316 313 312 310
317 316 317 320 322 320 319 319 318 318 318 316 316 315 314 313 313 315 313 313 314 313 313 315 323 325 325 324 323 323 322 320 318 316 315 314 315 312 310 308 309 309 307 306
314 314 316 317 319 324 318 317 317 317 317 316 315 316 316 316 314 313 314 315 315 315 318 320 322 322 321 321 319 317 314 314 311 312 311 311 310 310 308 307 305 305 305 301
314 313 316 317 319 320 318 318 317 320 317 318 320 317 316 316 313 313 314 318 317 317 318 320 320 319 317 317 316 311 310 309 309 310 309 308 307 306 305 303 301 300 299 298
314 316 315 317 320 319 319 317 320 318 317 317 319 317 318 317 316 315 316 316 315 315 314 316 314 312 313 314 314 308 307 307 308 306 305 304 303 301 300 300 298 297 297 297
315 315 316 318 316 318 318 316 318 316 316 318 316 316 317 317 315 315 315 315 315 314 311 312 310 308 309 310 310 306 304 305 304 304 302 301 301 300 300 299 299 298 298 296
309 314 317 317 315 316 314 316 318 318 318 318 317 317 317 317 316 316 314 312 310 309 308 308 307 306 305 306 306 306 304 304 304 301 301 301 300 299 299 299 298 298 296 293
310 313 315 316 314 315 314 314 316 316 316 315 315 316 317 318 316 315 314 311 309 307 307 307 306 304 303 304 303 303 303 304 301 300 299 297 296 295 292 291 291 292 290 291
310 314 315 314 314 314 314 313 316 315 317 316 315 315 313 314 314 314 312 309 308 307 306 305 303 302 301 301 301 301 302 302 300 294 292 290 290 287 286 285 283 284 286 286

GFSCGP_925_thetae_051.txt.gz
Theta_e
312 313 314 313 312 313 314 315 315 313 313 319 320 321 318 320 322 323 320 322 322 321 318 317 317 317 316 316 317 318 318 318 319 319 321 322 323 321 322 320 320 322 322 322
314 315 314 313 313 314 314 314 314 314 314 320 320 322 320 321 322 322 320 321 322 322 317 316 315 316 315 316 316 318 317 318 319 320 320 319 318 315 316 318 317 316 316 316
316 315 315 315 315 315 314 314 314 315 315 319 321 318 320 321 322 321 320 321 323 323 319 317 315 315 315 315 315 316 317 317 316 317 317 319 318 318 316 316 315 314 314 314
314 315 314 315 316 314 315 314 316 317 317 318 316 319 315 321 323 324 322 321 324 324 321 317 315 314 314 314 315 315 316 317 317 315 315 315 315 315 315 315 316 315 314 314
319 316 314 316 316 315 316 316 317 317 317 317 318 316 316 323 326 324 323 322 322 325 322 318 316 315 314 314 315 315 315 316 316 315 314 314 314 314 314 314 314 315 315 314
317 315 315 315 316 315 316 317 317 318 317 321 318 317 318 321 324 325 324 322 322 324 323 320 317 316 315 314 314 315 315 315 316 315 314 313 313 314 314 314 314 314 315 314
314 315 315 315 316 316 316 317 319 320 321 323 319 325 322 318 320 323 325 323 320 321 324 322 317 316 315 314 314 314 314 313 314 314 314 314 313 314 315 315 317 317 314 314
314 316 314 314 316 317 316 317 319 322 323 321 323 324 321 319 317 319 322 325 319 319 323 323 320 317 316 315 314 313 313 313 313 313 313 313 314 315 317 318 319 319 319 320
315 315 315 315 315 315 316 317 316 322 324 325 322 321 318 318 317 317 317 322 322 317 318 323 322 318 317 316 315 313 313 313 313 313 313 313 314 315 317 320 320 320 320 319
314 318 316 316 315 315 316 317 321 321 326 328 323 325 321 320 320 316 313 320 322 321 317 319 322 321 319 318 317 315 314 314 314 314 314 314 315 316 318 320 321 321 320 320
312 315 315 315 316 316 316 317 320 320 320 322 324 321 318 321 319 318 317 314 316 321 321 319 320 322 321 320 319 318 315 315 315 316 316 315 316 318 319 320 320 321 322 323
313 314 316 315 314 316 315 316 318 321 324 321 320 322 317 316 317 317 317 315 313 315 320 320 321 322 322 321 321 319 318 316 315 316 317 317 317 319 320 322 323 323 324 324
320 318 316 317 315 314 314 315 317 319 320 322 324 322 318 317 318 316 315 315 313 313 314 317 319 322 321 322 322 321 320 318 317 317 317 318 319 320 321 322 323 323 323 324
319 322 319 319 317 315 318 317 317 318 319 319 322 320 319 319 318 317 315 314 313 312 313 315 317 319 322 322 321 321 321 321 320 320 319 319 320 322 323 324 324 325 325 325
321 323 322 321 321 319 316 317 318 318 318 319 318 319 318 317 317 316 316 316 315 316 312 315 317 318 319 322 322 322 322 321 322 322 322 322 322 323 324 325 325 326 326 326
320 321 320 321 321 318 317 316 316 316 318 317 317 317 316 316 316 316 315 316 316 316 315 312 317 318 319 320 321 323 323 323 323 323 323 324 324 325 325 325 325 325 325 323
319 317 317 319 318 319 318 317 316 316 318 319 320 317 317 318 317 316 316 314 315 315 315 313 313 319 319 320 320 321 322 323 325 324 324 325 325 325 325 325 324 322 320 319
317 316 316 318 315 325 318 313 315 317 317 316 317 317 316 316 315 314 313 314 315 314 314 312 310 317 321 322 324 325 326 325 324 325 326 325 325 325 323 323 321 319 318 317
314 313 314 313 317 316 313 317 315 319 319 315 316 315 314 312 312 311 311 311 313 313 314 312 311 317 322 324 326 327 325 327 326 324 323 322 322 320 318 316 315 314 314 311
313 312 310 316 317 316 310 312 314 318 321 317 319 317 315 314 313 313 311 311 311 310 310 313 317 321 323 323 325 323 321 322 321 319 317 317 316 315 312 312 311 309 309 307
313 313 317 315 317 315 313 314 317 320 319 318 318 318 316 315 312 313 310 310 313 313 315 318 320 321 321 320 320 315 315 315 315 315 315 313 311 311 310 309 307 306 304 302
312 314 315 316 317 315 317 316 318 316 314 316 317 316 316 315 314 313 312 312 315 315 316 318 316 314 316 318 317 311 309 310 313 311 309 307 307 307 306 306 301 300 298 296
313 311 311 313 314 312 316 315 314 313 317 316 317 317 316 315 315 313 314 313 311 313 311 313 311 308 311 313 314 308 305 306 306 306 303 302 301 301 300 300 297 296 295 291
307 310 312 314 310 313 313 315 314 314 317 317 317 315 315 317 316 315 313 312 311 309 309 308 308 306 304 308 309 308 305 305 304 301 300 299 298 298 297 297 296 295 293 291
307 311 313 312 313 313 313 312 313 315 317 316 314 314 314 314 315 314 314 312 310 309 307 307 305 303 302 304 304 304 303 304 300 298 296 295 295 295 293 292 292 293 292 293
310 311 312 312 312 311 313 311 309 313 313 311 312 312 311 312 312 313 313 310 308 306 304 303 301 301 300 300 300 300 301 302 298 292 291 291 290 288 287 286 284 286 288 290

GFSCGP_925_thetae_054.txt.gz
Theta_e
313 313 315 312 312 311 311 313 314 312 312 314 313 313 314 319 323 324 324 321 319 319 317 317 318 318 317 317 318 318 320 320 322 322 323 323 323 321 322 319 317 317 316 316
312 315 313 313 312 313 313 314 313 311 312 313 315 318 317 318 321 323 324 320 320 319 316 315 316 317 316 317 318 318 318 320 321 322 320 320 320 321 321 321 318 319 319 321
315 315 313 314 313 314 313 313 313 313 313 314 319 318 317 319 320 321 320 319 319 320 317 316 314 316 316 316 316 318 317 318 319 318 318 320 320 319 320 314 319 321 319 319
314 315 314 314 314 313 314 312 314 314 315 317 317 321 314 315 320 322 321 319 319 321 319 316 314 314 315 315 315 316 317 317 318 319 319 317 317 316 318 317 314 316 315 317
316 315 315 315 314 313 315 314 314 315 315 316 316 315 314 321 322 321 320 320 319 320 320 317 315 314 314 314 314 315 317 317 316 318 318 320 319 318 317 318 316 315 314 316
314 314 313 315 314 313 315 316 315 316 315 318 316 315 315 315 319 318 320 320 320 320 321 318 316 314 313 314 315 315 316 317 316 316 316 318 317 317 319 316 316 316 315 315
313 315 315 314 315 314 315 315 318 319 321 322 317 318 317 317 316 317 318 319 319 319 321 320 315 314 312 313 314 315 315 315 316 315 315 315 316 317 316 316 315 315 315 315
314 314 314 313 315 316 314 315 318 322 321 318 322 324 320 317 317 315 316 318 318 319 321 321 318 315 314 313 313 314 314 314 315 315 315 314 314 315 315 315 314 314 314 315
314 314 313 313 314 315 316 316 315 319 322 323 320 318 316 316 317 315 314 320 318 318 319 322 320 317 315 314 313 313 313 314 314 314 314 314 314 314 313 313 314 314 314 314
314 316 315 315 314 314 315 315 320 317 324 325 321 323 318 318 317 316 314 317 320 316 316 320 321 319 317 316 314 314 313 314 313 314 314 313 313 313 314 314 315 316 316 315
312 313 314 314 315 315 315 315 318 318 317 320 321 318 316 317 318 318 314 312 315 319 315 315 320 321 318 317 316 315 313 313 314 314 313 313 313 313 313 314 315 317 318 319
316 313 313 313 312 314 314 315 317 319 320 318 316 318 316 316 316 316 316 313 311 316 318 315 315 319 319 317 317 316 315 313 313 314 313 313 313 313 313 314 315 316 318 319
318 319 316 316 314 313 313 313 314 317 316 318 320 319 318 315 317 316 315 313 312 311 313 316 315 317 320 319 318 318 317 316 314 314 314 314 314 314 315 315 316 318 319 319
318 320 321 321 321 321 320 317 313 315 316 317 318 318 318 318 318 318 315 313 312 312 311 314 316 318 319 320 320 320 319 318 316 314 315 315 316 316 316 316 317 318 320 320
319 318 321 321 320 320 319 318 316 316 315 317 316 317 317 317 316 315 315 314 314 313 312 311 314 316 319 319 320 320 320 319 318 317 316 315 315 316 317 318 318 319 320 321
317 318 318 318 319 315 317 318 315 315 314 316 316 316 314 315 314 314 314 314 313 313 313 312 311 315 314 319 320 320 320 320 320 319 318 317 317 316 317 318 319 320 321 322
316 316 314 316 315 316 317 314 311 315 315 316 317 315 315 315 316 315 315 314 314 313 313 312 311 312 316 317 319 320 320 320 320 320 320 320 320 319 319 320 321 322 322 322
316 315 312 315 312 317 313 312 315 314 314 310 311 317 315 315 315 314 313 313 313 312 312 312 311 310 314 317 319 320 321 321 321 320 320 321 321 322 322 322 322 322 322 320
314 313 310 311 313 313 312 315 317 315 313 309 314 319 317 314 310 310 309 309 310 310 310 310 311 311 313 316 318 319 320 320 321 322 322 322 322 323 323 322 321 319 318 316
310 310 311 314 312 312 307 309 314 314 314 316 316 317 317 315 313 314 311 310 309 308 308 309 310 312 314 317 320 321 322 323 322 322 322 322 323 323 320 319 315 313 311 308
312 314 316 314 315 311 310 313 316 317 308 313 315 316 316 316 313 314 313 312 310 309 310 312 314 316 318 319 321 320 320 320 318 319 319 319 319 317 315 311 308 306 304 302
311 312 310 314 317 312 313 315 316 313 312 314 313 313 315 315 314 313 312 311 312 312 313 315 314 313 314 317 319 313 310 311 314 314 312 311 310 309 306 305 301 300 298 294
311 309 309 310 310 309 315 313 312 313 313 314 313 313 314 314 314 314 313 312 311 310 309 310 308 308 311 314 316 308 305 311 309 307 303 302 302 301 300 300 297 295 294 291
307 308 310 310 310 310 312 311 309 309 312 312 313 313 314 314 312 311 311 311 309 307 308 308 307 304 303 307 308 305 305 306 306 301 299 298 298 297 297 296 295 294 292 290
304 308 309 309 311 310 311 310 306 308 309 311 312 312 307 305 306 308 310 309 308 307 305 304 302 301 300 301 302 303 304 305 300 298 296 295 295 294 292 291 291 291 291 293
308 309 308 306 310 309 309 307 301 305 303 301 300 299 297 297 302 306 302 300 301 300 299 297 296 294 292 293 295 297 299 301 298 292 291 290 290 289 288 287 286 287 289 291

GFSCGP_925_thetae_057.txt.gz
Theta_e
314 317 317 314 316 314 314 314 315 314 313 315 316 316 318 316 327 329 330 329 327 324 321 319 319 319 318 319 320 320 321 321 320 319 319 320 320 320 319 318 318 319 321 317
314 318 317 314 314 315 314 315 316 315 313 314 316 318 319 319 322 325 328 329 328 324 322 320 319 318 318 318 318 319 320 321 320 320 320 321 319 321 321 320 319 320 321 317
317 316 315 315 314 315 316 316 316 316 314 315 318 320 319 319 321 322 324 326 326 325 322 320 318 318 318 318 319 319 319 320 320 320 320 321 320 319 320 321 320 319 319 317
315 314 314 315 315 315 317 314 315 314 315 317 318 321 320 319 319 320 322 323 324 324 323 320 317 317 317 318 318 319 318 319 319 320 320 321 318 317 319 320 320 318 317 318
315 315 315 315 315 315 316 315 316 315 316 317 318 320 319 317 320 321 322 323 323 323 323 322 318 317 317 317 316 318 318 318 319 320 320 319 318 318 320 319 320 319 320 320
313 314 315 315 314 314 315 316 316 317 318 322 319 320 320 319 319 320 320 321 322 322 323 322 319 317 317 316 316 316 318 317 318 318 319 319 318 318 316 317 319 317 316 317
315 315 314 314 316 314 316 318 319 322 324 323 318 319 321 319 318 319 320 320 321 322 323 323 321 318 316 314 315 315 317 318 316 317 318 317 317 318 316 316 318 319 315 315
316 316 316 316 317 317 316 317 321 324 325 322 321 323 321 321 319 319 318 319 320 322 323 324 322 319 317 315 315 315 316 317 317 316 316 317 318 317 318 317 317 318 316 315
315 315 313 314 315 317 316 318 317 320 323 325 322 321 319 320 319 319 318 317 320 323 323 324 322 320 318 317 316 315 316 317 317 317 316 315 315 316 316 317 316 317 317 316
315 317 315 314 315 315 317 317 320 319 322 324 322 323 321 320 320 319 320 317 319 322 322 323 324 320 319 318 316 316 316 316 316 316 316 316 315 315 315 315 315 316 316 316
313 315 315 316 315 316 317 318 319 319 320 323 323 323 321 322 321 320 321 318 317 317 321 322 324 322 320 318 317 316 315 316 316 316 316 316 315 315 314 314 314 315 315 316
317 313 315 314 313 314 315 317 319 322 321 321 322 322 318 320 320 320 320 319 318 315 319 320 321 323 321 319 318 316 316 315 315 315 315 315 315 315 314 315 315 315 315 316
319 320 319 318 316 315 316 314 316 319 318 321 325 322 318 319 319 319 319 320 318 316 315 320 318 321 322 321 319 318 317 316 315 315 315 315 314 314 314 315 315 315 315 316
318 320 320 321 320 321 323 321 319 317 319 318 320 319 319 319 320 321 320 320 319 317 316 316 319 320 321 321 320 319 318 317 316 315 315 315 315 314 314 314 314 314 315 316
319 319 319 321 320 320 318 318 318 318 317 318 318 318 318 318 318 319 319 317 317 318 317 316 316 320 321 320 321 320 320 319 317 316 316 316 315 315 315 315 315 315 316 316
309 321 318 318 317 317 316 316 313 316 316 316 317 317 315 316 316 316 318 317 317 318 317 317 316 315 318 320 321 321 321 320 319 318 317 317 317 316 316 316 316 316 317 318
309 317 316 314 316 315 314 316 314 316 315 316 316 313 312 319 318 317 317 318 316 317 316 316 316 316 317 318 320 321 321 321 320 320 319 318 317 316 316 317 317 317 318 318
308 314 313 316 314 313 312 313 313 317 316 313 311 310 318 319 318 318 315 315 316 315 315 315 316 316 315 315 317 319 320 321 321 321 320 319 319 318 318 317 317 318 319 319
310 312 316 317 316 313 311 311 316 317 312 314 317 318 318 318 317 319 315 316 316 316 313 312 312 313 313 313 315 318 319 320 320 321 321 320 320 320 320 319 319 320 320 321
312 313 316 314 316 315 310 309 314 313 312 315 316 317 317 317 322 320 317 316 315 314 314 312 311 310 311 312 313 317 319 320 321 321 321 320 320 320 320 320 321 321 319 317
314 313 315 315 316 315 311 311 313 313 312 313 315 315 315 317 317 316 315 315 314 313 313 315 316 315 315 316 318 319 320 320 316 317 319 320 321 321 320 318 315 313 310 306
311 313 314 315 316 315 310 316 316 315 314 313 314 313 314 315 315 315 314 313 313 312 312 312 313 312 313 316 319 317 311 312 316 317 315 313 313 312 310 310 306 304 301 297
314 312 314 313 314 310 313 314 310 310 312 313 314 314 314 316 315 313 312 311 311 310 310 309 309 308 306 308 312 309 306 309 309 306 303 302 302 302 301 301 297 295 293 291
309 308 312 312 311 311 312 310 307 307 307 305 307 304 303 303 304 306 308 307 307 306 306 305 305 304 302 302 302 303 304 306 305 300 297 297 296 295 295 294 293 293 292 290
308 309 311 311 310 311 310 306 304 305 303 302 302 299 298 297 298 301 298 297 297 296 296 297 297 297 296 296 296 298 298 299 296 294 292 291 290 290 289 289 290 290 291 292
309 310 312 311 309 308 309 303 300 302 300 298 296 296 294 293 293 293 292 291 291 290 290 291 290 290 289 290 291 292 293 293 293 291 290 289 288 287 286 285 284 284 288 289

GFSCGP_925_thetae_060.txt.gz
Theta_e
317 318 317 316 317 316 316 317 317 316 317 318 319 319 320 321 323 327 329 330 331 330 327 323 323 324 324 323 324 322 322 322 320 318 319 320 320 319 318 320 320 319 320 321
319 320 317 316 317 317 315 316 316 317 317 316 316 317 320 321 322 324 328 330 331 331 328 325 323 323 323 324 324 322 322 320 320 320 318 320 321 320 319 321 320 319 321 321
318 317 317 318 316 316 316 316 317 317 317 316 317 318 320 321 322 323 325 327 329 331 330 327 325 323 323 322 321 323 323 320 320 320 320 320 320 319 320 320 319 319 322 323
313 313 316 318 317 316 316 316 316 317 318 316 318 319 321 321 321 321 321 327 328 330 329 328 326 324 323 322 322 322 322 323 321 321 320 321 319 319 319 319 319 320 321 323
315 314 313 316 317 316 317 316 317 318 319 317 316 318 319 320 321 321 321 322 327 328 329 328 327 324 322 322 321 321 321 322 321 321 321 320 319 319 318 319 320 321 321 322
315 315 314 314 314 316 316 317 318 318 318 320 318 320 320 320 321 319 320 320 324 327 328 328 326 324 323 322 321 320 320 321 320 321 321 321 320 319 318 320 319 319 319 320
314 315 316 316 314 316 317 318 320 320 322 321 320 322 321 321 322 321 320 321 324 327 328 328 328 326 324 322 321 320 320 320 321 320 321 321 322 320 318 319 319 319 320 319
312 316 315 317 317 317 318 318 320 322 323 323 322 322 322 321 322 322 323 323 324 326 327 328 328 326 325 322 321 320 320 320 320 321 321 322 322 321 318 318 318 319 318 318
313 314 315 316 317 317 318 319 318 320 324 325 324 323 322 321 321 321 321 321 323 323 327 328 328 327 325 323 321 320 320 321 321 320 320 320 322 322 320 319 318 318 319 317
314 315 314 316 317 318 319 319 320 320 322 324 322 323 322 321 321 321 322 323 322 324 326 328 329 327 326 324 322 320 320 321 322 322 322 322 323 322 322 321 319 319 319 319
312 317 318 316 318 319 319 320 320 321 320 322 323 323 321 321 323 323 323 323 324 322 327 328 328 327 326 325 323 322 320 320 321 322 322 322 322 321 322 321 320 321 320 320
311 315 317 317 316 316 318 319 320 321 322 322 323 322 320 322 321 323 324 323 324 323 323 326 328 328 326 326 325 323 322 320 320 321 322 322 321 321 320 320 321 321 321 321
319 314 313 312 313 315 317 317 317 319 320 323 326 322 319 320 320 321 322 323 324 323 322 325 326 328 328 326 325 324 323 322 321 320 320 321 321 321 321 321 320 320 320 320
319 321 315 315 315 318 320 319 320 319 321 320 320 320 319 319 319 320 321 321 322 322 322 322 325 325 326 326 326 325 324 323 322 321 320 320 321 321 321 320 320 320 320 319
317 320 319 319 318 319 320 320 319 321 320 321 319 319 318 319 319 320 320 320 320 321 321 322 322 323 324 325 326 325 324 324 323 322 321 321 321 320 320 320 320 319 319 319
311 315 316 315 315 317 316 316 317 317 320 320 320 320 318 316 317 320 321 321 320 319 320 321 322 321 321 323 324 325 325 324 323 323 322 322 321 321 320 320 319 319 319 318
310 316 314 312 314 314 314 314 315 318 319 320 321 319 315 314 318 321 322 320 320 320 319 319 319 319 320 320 321 324 325 325 324 323 322 322 321 321 321 320 320 320 319 319
309 315 317 314 316 314 313 316 316 319 318 318 314 314 317 319 320 320 319 321 321 320 320 320 320 320 317 318 318 321 323 325 325 324 324 323 322 322 321 321 321 321 320 320
308 312 317 316 314 311 311 313 315 318 315 315 315 315 316 317 320 320 319 318 319 319 319 319 318 318 317 317 316 317 319 322 324 325 325 324 323 323 322 321 321 321 321 322
309 310 315 317 314 315 311 314 314 314 312 314 314 314 315 316 322 320 318 317 316 317 317 318 319 320 320 318 317 316 319 320 322 323 324 324 324 323 323 323 322 322 322 322
311 313 314 315 316 314 313 313 315 313 316 315 315 315 316 317 317 317 318 316 315 315 315 316 318 318 316 317 320 320 320 321 322 323 323 323 323 323 323 323 318 314 316 312
312 312 314 313 315 315 313 314 314 318 315 316 317 317 317 316 317 316 314 315 313 313 313 313 313 312 308 309 318 321 316 315 317 315 313 313 314 315 313 313 309 307 305 300
314 311 313 312 313 316 315 316 313 313 314 312 313 312 311 313 312 311 312 308 307 307 306 307 306 303 301 301 305 306 304 304 303 302 300 300 300 301 300 299 296 295 294 292
310 312 314 313 311 313 315 313 312 311 310 308 307 307 306 308 307 307 305 302 302 298 299 299 299 295 294 294 295 298 299 300 298 296 294 293 292 292 292 292 292 292 291 290
310 311 310 310 310 313 312 310 309 309 308 306 304 303 301 302 303 303 302 299 298 295 294 293 293 291 290 290 290 292 295 296 293 292 291 289 288 287 286 286 287 288 289 290
310 309 312 311 312 311 312 307 304 307 305 302 300 300 299 296 297 296 295 294 292 291 290 290 289 288 288 288 288 288 290 292 291 290 289 289 288 287 285 284 283 283 286 288

GFSCGP_925_thetae_063.txt.gz
Theta_e
311 314 319 318 318 318 319 321 321 321 320 320 320 320 323 322 323 324 327 327 329 331 331 328 325 326 327 328 328 326 324 322 320 321 321 321 322 320 319 320 321 320 319 318
313 315 316 317 317 318 319 319 320 320 319 319 319 318 320 321 321 323 324 326 328 330 331 329 326 326 327 327 326 324 324 322 320 320 321 321 321 321 320 319 321 321 317 320
315 315 317 316 317 318 320 320 320 320 320 319 319 318 318 320 321 322 323 323 326 329 331 330 328 326 327 327 326 325 322 322 320 320 320 321 320 320 319 320 319 319 321 320
317 315 317 318 318 319 320 319 319 319 320 321 321 321 320 320 321 322 323 323 324 326 330 331 329 327 326 326 325 326 324 321 322 320 319 320 320 321 319 318 321 318 318 321
319 316 314 317 318 319 320 319 319 318 320 321 322 320 320 321 322 322 322 323 324 326 329 331 330 327 326 326 325 323 325 324 323 323 321 320 320 321 321 319 320 320 317 320
312 313 316 315 314 316 317 318 319 319 321 325 323 322 321 322 322 323 320 322 322 326 327 330 329 328 326 325 325 324 323 324 324 322 322 321 320 320 320 321 320 319 319 320
314 313 314 317 315 315 316 319 322 323 325 325 323 323 323 322 322 322 322 321 323 324 327 330 330 330 326 325 325 324 323 323 323 323 322 322 321 321 320 320 320 320 319 321
315 315 315 316 317 316 317 319 322 326 327 325 323 323 324 323 322 321 321 322 323 326 327 329 330 330 327 325 325 325 323 324 323 322 322 322 322 323 320 319 319 320 320 320
314 312 313 314 317 317 318 320 318 321 326 328 325 323 324 323 322 322 322 322 322 323 326 328 329 330 328 326 325 325 323 323 323 323 322 322 322 322 322 320 320 319 320 321
314 314 313 315 316 317 318 319 320 321 325 327 325 327 325 322 322 322 322 324 324 324 324 328 329 330 329 327 325 324 323 324 324 323 323 322 323 323 323 322 322 320 320 322
313 315 315 316 317 319 319 320 322 320 321 325 327 325 324 323 324 324 324 323 324 324 327 328 329 329 329 328 326 325 324 323 324 324 323 323 322 324 324 323 323 322 321 321
314 314 315 320 316 317 319 320 321 324 327 324 327 325 322 322 321 322 323 323 324 324 324 328 330 330 330 329 328 326 325 323 323 325 325 324 324 324 324 324 324 324 323 322
317 313 316 317 320 316 318 320 321 322 323 328 330 325 322 321 320 320 322 323 324 324 324 326 329 330 330 330 329 328 326 325 323 323 325 325 326 326 326 326 325 325 324 324
313 321 316 314 317 316 317 319 319 319 324 325 326 325 323 321 319 319 321 322 322 323 323 323 326 328 330 329 329 329 328 327 325 324 324 325 325 325 325 325 325 325 324 324
312 322 322 318 319 319 316 317 317 319 320 322 322 321 320 319 320 319 320 321 322 322 322 323 323 324 325 327 328 328 328 328 327 325 324 324 325 325 325 325 325 324 324 324
312 316 319 320 318 319 320 319 319 319 319 320 320 320 320 320 317 318 321 321 322 323 323 322 322 322 322 322 324 327 328 328 327 327 326 325 325 325 325 325 325 325 324 324
311 311 318 320 315 315 318 318 318 318 318 319 320 320 320 317 317 318 319 322 322 322 322 322 322 322 322 321 320 322 325 327 327 327 327 326 326 325 325 325 324 324 324 324
310 312 312 317 315 319 315 315 316 317 319 319 318 317 317 317 318 317 321 320 321 320 320 321 322 322 322 322 321 320 320 323 327 327 327 326 326 326 325 325 324 324 324 324
310 312 315 316 315 314 312 312 316 319 318 317 316 315 315 316 316 319 321 319 318 318 318 319 319 321 322 322 322 321 319 319 322 326 327 327 326 325 325 325 325 325 324 324
310 310 314 316 315 316 313 314 315 317 319 315 315 315 315 316 317 321 319 318 317 317 316 316 317 317 312 310 314 321 322 321 320 321 324 326 326 326 325 325 326 325 325 325
313 312 313 314 315 313 313 313 314 315 318 316 316 317 317 317 318 318 318 317 316 315 313 312 314 310 302 300 303 319 321 321 322 324 324 324 325 326 326 326 325 324 320 314
311 312 313 313 313 314 314 312 316 317 317 315 316 316 317 317 317 316 315 313 311 310 308 308 309 304 297 296 296 301 303 305 307 310 307 306 307 311 313 311 311 312 310 302
312 311 312 311 311 316 317 317 315 315 315 314 314 313 312 314 313 313 312 309 308 306 305 302 302 299 295 292 293 293 296 298 298 297 296 295 297 297 299 299 297 296 295 293
313 311 313 312 315 315 316 315 313 313 313 311 311 310 309 309 310 309 308 307 305 303 301 298 297 294 292 291 290 290 292 294 293 292 291 290 289 289 290 291 292 292 290 289
312 312 312 313 314 316 314 312 311 311 310 308 307 306 305 304 305 303 303 300 298 297 295 294 293 291 289 288 288 288 292 291 291 290 289 288 287 286 285 285 285 286 287 288
311 311 312 313 315 315 312 310 308 309 307 304 304 303 302 300 300 298 295 291 290 289 288 288 288 287 285 286 285 285 288 289 288 287 287 286 286 285 284 284 283 283 283 284

GFSCGP_925_thetae_066.txt.gz
Theta_e
314 313 311 317 318 319 318 319 319 320 321 321 321 320 320 322 322 326 325 326 326 330 331 330 327 327 328 329 328 327 325 324 324 322 323 322 322 322 322 321 321 319 321 321
316 317 314 315 317 317 317 319 321 321 321 320 320 320 320 321 322 323 324 326 327 328 331 331 327 327 328 330 328 327 326 324 323 322 322 322 321 320 319 318 318 319 320 321
319 316 313 315 317 319 319 319 320 320 320 320 319 320 320 320 320 321 322 324 325 328 331 331 329 327 328 330 328 326 325 323 322 322 322 322 321 319 319 319 320 320 321 320
320 320 315 317 320 317 318 318 318 320 321 321 321 322 322 322 320 320 321 324 324 324 329 332 329 327 328 329 328 326 324 322 322 322 322 321 321 320 319 320 321 320 320 319
322 320 316 319 320 318 318 320 321 321 320 321 320 322 322 321 321 321 322 324 324 325 327 332 330 328 327 328 328 326 324 322 321 320 322 321 321 320 319 319 320 320 320 320
316 314 317 318 316 319 319 320 321 322 322 323 321 322 323 323 322 322 323 323 323 325 326 330 331 329 327 327 327 326 325 323 323 321 321 321 321 321 320 319 320 320 320 319
314 315 315 314 316 316 317 321 323 325 326 326 321 323 325 324 323 323 323 322 323 326 327 328 331 330 328 328 328 326 326 325 323 323 321 321 320 321 321 319 318 319 319 318
318 320 317 315 316 319 316 319 324 332 331 325 323 324 324 324 323 323 321 322 323 325 328 328 330 331 328 327 328 327 325 325 324 323 322 321 321 321 321 321 319 319 319 318
315 317 315 316 316 318 318 320 319 322 324 327 328 323 323 324 323 322 322 322 323 326 327 327 329 331 329 327 327 327 325 324 325 324 323 322 321 321 321 321 321 320 320 319
312 314 314 314 316 316 319 318 321 321 328 330 329 326 325 325 324 322 322 324 325 325 325 327 328 331 330 327 327 327 326 325 324 323 323 322 322 322 322 320 320 320 320 319
314 315 315 316 315 318 319 320 320 322 322 328 331 330 328 326 325 326 325 324 326 326 327 328 328 331 331 329 327 327 326 325 325 324 322 322 322 322 323 322 321 320 320 320
317 316 316 315 317 317 317 320 320 325 325 324 327 328 325 323 322 323 324 325 325 326 325 327 329 330 331 330 328 327 326 325 326 325 324 322 321 322 323 323 323 322 321 320
311 317 316 315 318 318 320 318 320 322 326 331 332 325 324 322 321 321 322 323 323 323 325 327 330 330 331 331 330 328 327 326 325 326 325 325 324 323 324 325 324 323 323 323
311 316 320 318 316 321 321 319 320 323 328 328 329 328 325 323 323 321 321 322 322 323 323 324 325 329 330 331 331 330 329 327 326 325 326 326 325 324 323 324 326 324 325 324
313 318 319 320 321 318 316 318 320 325 326 327 326 325 324 324 322 320 321 322 323 324 323 323 323 323 323 327 330 330 331 330 328 326 325 326 327 327 327 326 326 326 325 326
311 318 315 319 320 319 319 319 318 321 320 318 320 323 321 321 321 320 321 323 323 322 322 322 323 323 323 323 323 322 328 330 330 328 327 326 325 327 327 327 328 328 327 326
312 312 315 320 319 319 321 319 321 320 321 321 325 323 321 321 317 319 322 321 320 320 320 321 321 323 323 321 321 322 323 321 329 329 329 328 327 326 327 327 327 326 326 326
311 311 314 318 318 321 317 317 317 318 317 317 320 320 318 318 318 321 320 320 319 319 319 318 319 320 315 312 312 313 316 322 323 325 329 329 329 327 326 326 326 326 326 326
310 311 315 321 320 318 315 314 315 319 320 320 321 317 316 316 319 321 319 318 318 317 316 316 315 311 307 305 306 312 318 319 322 320 323 327 328 328 328 327 326 326 326 325
310 312 313 316 319 318 315 314 313 316 321 316 316 316 316 316 323 321 317 316 314 313 311 311 310 305 301 299 302 307 308 307 306 306 312 312 314 328 328 327 327 326 326 325
312 313 314 315 317 316 312 314 314 319 320 317 318 318 320 320 319 316 315 313 310 310 307 306 306 301 297 295 297 299 299 299 300 301 303 303 303 308 317 324 324 326 322 316
311 313 315 313 314 316 313 313 316 319 316 316 315 315 317 316 314 314 312 310 308 306 304 302 302 299 295 293 293 295 295 295 295 294 293 293 294 296 300 305 307 309 309 303
314 312 313 311 312 317 317 318 316 316 315 314 314 312 312 313 311 310 309 307 304 301 300 299 298 295 292 290 290 291 292 293 291 290 289 288 288 289 291 293 294 294 295 292
312 312 312 312 310 316 315 314 313 313 312 310 309 308 307 309 307 306 302 299 297 294 294 293 292 290 289 287 287 288 290 290 290 288 288 287 286 285 286 286 286 288 289 288
313 313 314 314 316 316 313 311 312 309 307 307 306 305 303 304 302 300 296 293 291 289 289 288 287 286 286 285 285 286 287 289 288 287 286 286 285 285 284 284 284 284 284 285
313 315 316 318 313 313 310 308 308 306 304 303 302 302 300 299 297 295 291 288 286 286 285 285 285 284 285 285 284 285 286 287 287 286 286 285 284 284 283 283 283 283 283 283

GFSCGP_925_thetae_069.txt.gz
Theta_e
312 311 311 311 314 317 317 319 317 316 317 318 319 318 315 318 316 318 319 318 318 328 329 326 326 329 329 330 329 327 326 326 324 323 323 322 324 324 324 323 324 325 324 325
316 314 314 315 315 314 317 318 317 317 318 319 319 318 316 317 316 316 319 318 319 325 329 325 325 327 328 329 329 326 325 325 324 322 323 322 321 322 323 323 322 323 324 324
318 318 316 316 316 316 317 318 317 319 319 318 318 318 317 318 317 316 318 320 321 325 328 325 325 325 328 328 328 326 325 324 323 322 322 321 321 321 321 321 322 322 321 322
320 318 318 314 315 315 320 319 319 318 318 319 319 320 317 318 318 318 315 315 321 322 328 325 325 324 327 327 327 326 324 323 323 322 322 321 320 320 320 320 320 320 321 322
319 320 321 321 317 316 321 320 319 321 322 322 321 318 317 318 319 318 316 314 316 318 328 326 324 325 326 327 327 325 324 324 322 322 322 320 319 320 319 319 319 319 320 320
318 316 318 318 316 317 318 321 322 321 322 325 322 319 317 318 320 321 318 317 318 316 328 326 324 326 326 327 326 325 323 321 322 322 321 320 319 319 318 319 320 319 321 320
316 316 315 316 318 317 318 322 327 327 323 324 320 321 319 319 321 321 319 317 317 318 328 327 325 325 325 326 325 324 323 321 322 321 322 321 320 319 318 318 320 320 320 320
315 318 314 315 316 316 317 321 326 331 331 327 323 322 320 320 320 321 318 318 319 320 328 327 326 325 325 326 325 324 323 322 321 321 321 321 321 320 319 318 319 320 320 320
313 316 314 316 315 316 321 320 318 323 322 326 326 323 320 320 320 319 319 318 317 320 321 328 326 325 325 326 325 324 324 323 322 322 321 321 320 321 320 319 318 319 319 319
311 314 313 316 316 317 320 318 322 322 329 331 327 328 323 324 322 320 320 319 319 320 321 325 327 325 325 326 325 325 325 324 323 322 322 321 321 320 320 320 319 318 318 319
313 315 314 314 317 317 319 322 322 323 324 328 332 331 325 321 322 323 322 321 320 319 320 320 327 326 325 326 326 325 324 323 324 323 322 321 321 321 320 320 321 320 318 318
311 315 318 315 317 317 318 319 321 326 329 325 322 326 322 319 320 320 320 320 320 320 321 321 327 326 325 325 326 325 324 324 323 323 323 321 321 322 322 321 320 320 320 319
311 315 319 316 316 318 318 318 319 322 323 329 331 325 323 322 320 319 319 319 321 321 321 321 323 324 326 325 325 326 325 324 324 324 322 322 321 322 322 322 322 321 320 320
311 314 317 320 321 320 319 321 320 322 327 327 329 329 326 325 325 319 319 320 321 321 322 321 321 322 323 323 325 325 325 325 324 324 323 322 321 321 321 322 321 322 321 321
314 316 316 317 314 317 320 319 320 322 323 329 327 327 325 325 324 321 320 320 321 322 322 321 322 321 319 319 318 319 321 325 325 324 324 324 323 322 321 321 321 323 322 322
312 315 315 315 317 318 321 321 318 320 323 325 325 325 323 324 323 322 320 320 319 320 319 320 319 316 314 312 312 313 315 318 322 325 324 325 324 324 323 322 322 322 324 323
313 313 315 316 317 317 320 319 319 321 323 322 325 324 323 323 322 320 318 318 318 317 318 317 313 310 307 305 306 308 314 313 317 315 315 322 324 325 325 324 323 323 323 324
311 312 313 315 316 321 318 316 318 319 321 320 322 323 322 323 321 318 316 315 314 313 314 311 307 304 301 300 301 305 306 306 307 307 308 309 310 312 320 326 326 326 325 325
307 309 310 313 317 318 316 315 314 321 320 318 319 318 322 321 318 315 312 311 309 308 309 305 301 299 297 297 298 300 300 300 301 301 303 304 302 304 307 315 325 326 325 325
307 308 308 312 315 321 316 315 314 319 322 317 319 320 321 319 319 315 310 309 306 305 304 301 297 295 294 294 296 297 297 297 297 296 297 297 296 298 299 303 307 322 325 325
308 308 310 310 313 315 314 314 314 320 321 317 317 317 315 316 313 310 307 305 302 300 300 298 295 293 291 291 293 294 294 294 293 292 292 291 291 293 293 297 298 302 310 315
312 309 311 311 311 313 314 315 319 317 314 314 313 314 313 312 309 305 302 298 297 295 294 294 292 290 288 288 289 291 291 291 290 289 288 287 288 288 290 291 292 294 294 292
314 310 310 310 309 314 315 316 315 313 312 310 309 308 308 307 302 299 297 294 292 291 290 290 289 288 287 286 287 288 289 289 288 287 286 286 285 286 287 287 287 289 289 288
311 311 312 312 308 314 314 312 310 308 307 305 304 304 303 302 298 295 293 291 290 288 288 287 287 286 286 285 286 286 288 288 287 286 285 285 284 284 285 285 285 285 285 285
309 310 312 313 314 312 311 308 306 305 305 303 300 300 300 297 294 291 289 288 287 286 286 285 285 285 285 285 285 285 287 287 286 286 285 284 283 283 283 283 283 283 283 284
307 311 313 313 309 307 306 304 303 302 300 299 298 295 294 292 289 287 286 285 284 284 284 284 283 283 284 284 284 284 285 286 286 286 285 285 284 282 282 281 281 282 282 282

GFSCGP_925_thetae_072.txt.gz
Theta_e
311 310 309 308 309 313 315 316 317 316 317 317 316 316 317 316 316 312 315 314 321 327 326 325 327 327 328 327 327 326 325 325 325 324 324 325 324 326 327 327 327 327 327 324
314 313 311 312 313 315 315 316 316 316 316 316 315 316 316 316 315 314 316 316 318 326 325 324 326 326 327 326 326 325 324 324 324 325 323 323 324 325 326 326 327 327 327 326
314 316 314 314 315 316 315 316 317 319 317 315 315 316 316 317 315 314 315 317 316 327 327 324 326 325 327 326 326 326 325 324 324 323 322 322 321 323 324 324 324 325 326 326
318 317 317 316 317 316 316 315 319 321 320 318 318 322 318 318 316 315 314 314 315 325 327 324 325 325 326 326 326 326 325 325 324 323 322 321 320 321 322 323 323 325 324 324
317 319 320 320 317 314 317 317 320 321 320 321 320 320 319 317 317 316 316 313 314 325 327 325 324 325 326 326 325 325 324 324 323 323 322 322 320 321 320 322 322 322 323 323
316 316 317 317 319 318 315 320 322 321 321 323 320 321 320 317 317 317 318 316 314 325 326 325 324 325 325 325 325 324 323 323 323 322 322 321 321 320 319 320 321 320 321 322
315 317 315 316 318 317 318 322 326 326 326 323 320 321 321 319 318 318 318 318 314 325 326 324 323 324 325 324 324 322 322 321 322 322 322 321 320 320 320 319 319 320 320 320
310 313 316 316 316 319 319 322 327 327 327 327 323 321 320 319 319 318 317 316 314 326 325 323 324 324 325 324 323 323 322 321 321 322 322 321 320 319 319 319 319 319 319 320
309 314 313 314 314 315 318 323 320 324 324 325 325 322 321 321 321 319 318 317 317 325 325 324 324 324 325 325 323 323 321 321 320 321 322 321 320 319 318 318 319 319 319 319
309 312 311 316 316 317 319 318 322 324 327 329 326 325 328 324 323 320 320 320 319 321 325 325 324 324 325 325 324 323 322 321 321 321 321 321 320 320 319 318 318 319 319 319
313 313 313 315 318 318 322 323 322 321 324 331 331 333 324 323 320 320 321 321 321 321 319 325 324 323 324 324 323 323 322 322 321 321 320 321 320 320 320 319 319 318 318 319
310 313 317 316 316 316 318 320 322 328 326 323 325 327 323 325 324 320 322 321 321 322 323 324 323 322 324 324 323 323 323 323 322 321 321 321 320 320 320 320 320 319 318 317
310 314 318 316 317 316 318 318 320 321 322 328 329 326 324 326 325 321 322 322 322 323 323 322 322 322 322 323 325 324 322 322 323 323 322 321 321 321 320 320 320 320 320 318
309 312 315 318 319 318 323 319 319 322 325 323 326 327 326 325 326 324 320 321 321 322 322 319 317 317 317 317 317 318 321 323 322 322 322 321 321 321 321 321 321 320 320 320
310 311 315 316 315 314 319 320 321 324 321 325 324 326 326 326 326 325 320 319 321 320 316 314 314 312 310 310 311 315 315 316 320 323 323 322 321 320 321 321 321 321 321 320
310 312 313 314 315 316 316 317 321 320 322 322 323 324 323 325 323 322 319 318 319 317 314 310 307 305 304 304 307 308 308 308 310 311 316 319 322 322 321 321 321 321 321 321
311 311 311 313 313 314 318 318 319 320 320 322 326 324 323 324 322 320 316 316 315 312 308 305 303 301 299 300 302 302 303 303 303 305 306 305 307 312 318 321 321 320 320 321
310 310 310 312 313 317 315 311 313 318 321 322 321 322 323 318 315 312 310 311 310 306 303 300 298 296 296 297 298 299 299 299 299 300 300 300 301 302 304 308 313 321 321 321
307 308 306 310 312 311 309 315 318 321 322 320 321 323 319 314 311 309 306 306 305 302 298 296 294 293 293 293 296 297 295 295 294 294 295 295 296 298 299 300 301 304 311 321
306 306 306 309 311 313 315 314 315 318 323 318 321 321 318 316 314 308 303 300 300 297 295 293 292 291 290 291 294 294 293 292 291 290 290 291 292 294 293 295 296 298 301 309
306 306 308 308 309 309 311 314 315 320 321 319 320 320 316 313 308 302 298 296 295 294 293 292 290 289 288 289 291 292 291 290 289 287 287 287 288 289 289 290 292 293 294 292
309 309 307 307 309 309 309 316 315 318 314 315 314 311 307 304 301 297 295 293 292 291 291 290 289 288 287 288 289 290 289 288 287 285 285 285 285 286 286 287 288 289 289 288
311 311 310 307 307 312 312 315 313 311 309 309 308 306 303 300 297 294 292 290 289 288 288 288 288 287 286 286 287 288 288 287 286 285 284 284 283 284 284 285 285 286 287 287
310 310 312 311 309 311 309 308 306 305 304 304 302 301 298 296 293 291 290 289 288 287 286 286 286 286 285 285 285 287 287 286 285 284 284 283 283 283 283 284 284 284 285 285
308 308 312 312 309 306 305 304 303 302 299 298 297 295 294 292 290 289 288 287 286 285 284 284 284 284 284 284 283 284 285 285 285 285 284 283 282 281 282 282 282 283 283 283
304 304 309 310 304 306 305 301 299 297 297 295 293 290 289 288 287 286 285 284 283 282 281 281 281 281 282 282 281 282 283 284 283 283 282 281 281 281 280 280 280 280 281 281

GFSCGP_925_thetae_075.txt.gz
Theta_e
309 307 307 306 307 311 313 314 314 313 313 315 315 314 313 313 312 311 313 314 310 320 323 323 326 327 327 328 329 329 328 327 326 325 325 327 325 324 327 327 326 325 327 325
311 311 309 308 308 311 313 314 315 314 315 317 313 314 314 314 313 314 314 314 311 319 322 325 325 326 326 326 327 327 327 326 325 324 325 325 324 323 326 327 327 327 326 323
310 312 314 312 312 314 314 314 315 316 317 317 316 317 315 314 314 314 312 313 314 322 324 326 325 326 325 325 325 326 326 325 324 323 323 323 323 322 325 326 327 327 325 324
313 313 316 315 315 315 317 313 315 320 321 320 315 320 317 315 316 315 313 312 314 323 324 326 326 325 325 324 325 325 324 325 325 324 322 321 322 323 322 323 326 325 326 325
315 317 318 318 317 315 317 316 319 320 321 320 320 319 317 316 317 317 315 313 312 320 325 324 326 325 326 325 324 324 323 323 323 323 321 321 321 321 322 322 324 324 323 326
314 315 316 316 316 316 315 320 320 320 321 326 320 319 318 316 318 317 316 315 312 314 324 324 324 325 326 325 324 323 324 324 323 323 322 322 321 320 320 321 322 323 323 323
314 316 314 316 316 317 318 321 324 325 326 325 318 319 318 317 318 318 318 317 314 314 322 323 323 324 325 324 323 322 323 322 322 323 322 322 321 320 319 321 321 322 322 323
311 308 315 315 315 318 319 320 324 326 326 321 320 322 319 318 318 318 318 315 314 312 322 323 323 324 325 325 323 322 321 321 321 321 321 322 321 321 319 319 321 321 321 322
307 310 313 314 314 316 321 321 319 325 323 323 321 322 320 321 320 319 320 316 314 315 323 323 323 324 324 324 323 323 321 320 321 320 321 321 321 320 319 319 318 320 320 321
307 310 310 314 314 315 318 318 322 324 326 326 324 324 327 325 325 321 321 321 319 323 323 322 323 324 325 324 323 322 322 321 320 319 320 320 320 320 319 319 319 319 318 318
312 309 310 316 318 320 321 322 321 321 323 329 328 332 325 326 327 322 322 323 324 321 323 323 322 322 324 323 323 322 321 320 319 318 319 320 321 320 320 319 319 318 319 319
310 313 316 315 313 315 319 320 321 325 324 322 325 326 323 325 325 321 322 324 322 323 323 323 323 322 322 322 322 321 320 320 319 320 320 318 320 320 320 319 319 319 318 319
310 313 314 314 316 316 319 319 320 320 321 325 326 326 324 323 325 323 322 321 318 317 317 317 317 317 318 321 321 323 322 321 320 321 320 319 319 320 320 320 320 319 319 318
308 310 312 312 316 317 318 318 320 322 324 324 325 328 324 322 322 322 320 318 315 314 313 311 310 311 312 315 316 315 316 320 322 322 321 319 320 320 320 320 319 320 320 320
308 309 314 314 313 313 314 315 317 320 321 325 321 322 323 323 322 321 320 317 313 310 310 309 307 306 306 308 307 308 309 309 314 321 322 321 321 321 320 320 320 320 320 320
309 310 311 312 312 313 311 311 313 315 320 321 321 321 322 323 323 322 319 315 310 307 305 303 303 302 302 301 302 302 302 303 306 307 307 309 312 317 320 320 320 320 320 320
309 309 309 309 309 309 312 314 310 314 319 319 320 321 322 324 323 321 316 311 307 304 301 300 298 297 297 298 299 298 298 299 300 300 300 301 303 305 307 310 314 318 319 320
309 309 308 309 309 310 309 305 315 316 318 318 320 321 322 315 311 310 311 307 303 300 298 297 295 294 294 296 296 295 294 293 294 294 295 296 297 299 300 301 302 305 308 311
306 306 306 307 308 306 304 314 317 320 323 321 321 319 311 308 307 305 304 301 299 297 295 293 292 292 292 294 294 293 291 291 290 290 291 292 293 294 294 295 295 296 299 300
305 305 305 307 308 308 310 308 313 314 322 318 320 317 313 314 313 306 300 298 296 294 292 291 290 290 290 291 292 291 289 288 288 287 287 289 289 290 290 292 291 292 291 289
306 305 307 306 307 306 306 306 310 314 322 318 319 315 316 313 308 299 296 294 293 293 291 290 289 288 288 290 290 289 288 287 286 286 286 286 286 287 287 288 289 289 289 289
309 308 304 305 308 308 310 314 313 312 314 311 311 308 303 300 298 295 293 292 291 290 289 289 288 287 287 288 289 288 287 285 285 284 284 284 284 285 286 286 287 287 287 287
302 307 309 306 306 309 307 309 308 310 309 307 306 303 300 298 296 293 291 289 289 288 287 287 287 287 286 286 287 287 286 285 284 283 283 283 283 284 284 284 284 285 285 286
308 307 309 310 309 307 305 302 301 303 305 304 303 300 297 295 292 290 289 288 287 287 286 286 286 285 285 284 285 286 286 285 284 283 282 282 282 282 282 283 283 284 284 284
305 303 307 308 307 305 302 301 299 297 296 295 294 293 292 291 290 289 287 286 285 283 283 283 284 283 282 282 283 283 284 283 283 282 281 281 281 281 281 281 281 281 282 282
302 302 302 308 307 305 301 298 296 295 294 292 291 289 288 287 287 286 284 283 282 281 281 281 281 281 281 280 281 282 283 282 282 281 280 280 279 279 279 279 279 279 280 280

GFSCGP_925_thetae_078.txt.gz
Theta_e
307 307 308 305 307 308 311 312 312 312 311 313 314 313 312 310 310 310 310 309 308 310 315 322 326 328 329 331 329 328 330 328 327 326 324 323 323 324 324 325 326 325 324 326
309 309 307 306 306 307 308 310 312 312 312 313 314 315 315 312 311 311 312 311 310 309 318 322 325 327 327 327 326 327 327 328 328 325 324 323 323 324 325 327 325 323 323 323
309 309 311 309 310 311 312 313 313 314 314 315 314 316 314 313 312 311 311 311 311 310 318 324 324 325 325 326 326 326 326 328 325 324 324 324 323 323 325 326 324 324 325 325
311 310 312 314 314 313 315 313 314 314 319 317 316 321 316 315 315 313 313 311 310 310 317 324 324 324 325 325 325 325 325 326 323 323 322 323 322 323 324 326 326 325 326 324
315 317 317 316 315 314 316 314 318 319 319 320 319 320 317 315 315 314 314 313 311 312 321 325 325 325 325 325 324 325 325 324 323 322 322 322 322 322 323 324 325 326 325 324
314 314 315 315 315 315 314 317 318 318 318 322 318 319 318 316 315 315 315 315 313 310 322 323 323 325 325 324 324 324 324 324 321 320 321 321 321 322 322 322 322 324 325 323
313 315 314 315 316 316 316 319 320 323 323 322 318 320 319 316 315 315 316 316 314 311 316 322 324 324 325 324 324 324 322 321 320 319 319 321 321 321 321 322 322 322 322 323
312 308 315 314 314 316 317 318 318 325 326 323 318 319 318 321 321 319 319 319 318 312 314 322 323 324 325 324 324 322 321 320 319 319 318 321 321 321 320 320 321 321 322 322
307 308 312 314 313 315 319 323 318 323 321 325 320 319 322 324 324 321 321 323 323 322 315 320 322 324 324 324 323 322 321 320 320 320 319 319 321 320 320 319 319 321 321 322
307 309 310 313 313 315 318 318 323 322 324 326 321 323 328 326 325 323 323 323 323 323 322 322 323 323 324 324 323 322 320 320 320 320 319 318 319 320 320 320 319 319 320 321
309 309 310 315 317 318 319 321 320 322 325 324 325 325 325 326 325 323 323 320 320 323 323 322 323 323 324 323 322 321 320 320 320 319 319 319 319 318 319 319 319 319 319 319
310 313 314 313 313 315 318 319 318 325 324 323 323 322 324 324 321 322 319 318 318 317 320 323 322 322 322 322 321 321 320 320 319 319 319 319 319 318 320 319 319 319 318 319
310 313 313 314 314 315 319 318 319 319 320 320 324 323 324 323 320 320 318 315 314 313 312 314 317 321 322 321 321 320 320 320 319 319 319 318 318 319 320 320 320 319 319 318
308 310 309 310 310 314 315 314 314 318 322 322 322 322 323 322 320 319 318 312 310 310 309 309 308 311 311 312 313 313 314 318 320 319 319 319 318 318 319 320 320 320 319 319
307 309 313 312 311 312 313 313 313 314 317 322 318 321 321 322 320 320 317 310 307 305 304 305 305 305 305 305 305 305 306 308 316 319 317 315 318 319 320 320 320 319 319 319
308 311 310 309 309 307 306 304 306 309 313 318 319 320 319 321 322 320 316 310 305 303 301 300 299 300 301 300 300 299 300 301 304 304 304 305 309 312 314 316 318 319 320 320
309 309 308 309 306 306 304 308 305 308 310 315 317 318 319 322 323 319 312 308 304 301 299 298 297 296 296 296 295 295 295 296 296 297 298 298 300 301 302 305 308 309 311 313
308 308 307 308 306 304 302 303 306 315 317 315 317 321 319 313 309 309 307 304 301 299 297 295 294 294 294 293 293 292 291 291 291 292 293 294 295 296 297 298 299 300 300 302
305 306 306 305 307 304 304 311 313 312 312 316 319 316 311 307 305 303 300 299 297 295 294 292 292 292 292 292 290 290 289 288 288 289 290 290 291 292 293 293 293 293 293 292
304 304 304 306 307 304 303 305 306 309 314 318 319 313 310 311 312 304 298 296 294 293 291 291 290 290 290 291 289 288 287 287 287 287 287 288 289 289 290 290 290 290 289 287
305 305 307 306 305 305 305 309 310 312 312 313 316 312 312 312 306 297 295 293 292 291 290 289 289 288 288 289 288 287 286 285 285 285 285 285 286 287 287 288 288 288 287 287
306 307 305 306 307 306 308 311 313 311 309 305 305 308 301 298 296 294 293 291 290 289 288 288 288 287 287 288 287 286 285 284 284 284 284 284 284 285 285 285 285 286 286 286
303 305 306 306 305 306 303 304 305 307 307 303 299 298 298 296 294 292 290 289 288 287 287 287 286 285 285 285 286 285 284 283 282 283 283 282 283 283 283 284 284 284 284 284
306 304 308 309 309 306 304 300 298 297 299 300 300 298 296 293 291 290 288 287 286 286 285 285 284 284 283 283 283 284 284 283 282 282 282 282 281 281 281 281 282 282 282 282
304 301 303 305 307 303 302 300 297 295 293 292 292 292 292 290 289 288 286 284 283 283 283 282 282 282 281 281 282 282 282 282 281 281 280 279 280 280 280 280 280 280 280 281
300 301 301 304 300 302 299 297 295 293 291 290 289 288 287 287 286 284 282 281 281 281 280 280 280 280 279 279 280 281 281 281 280 279 279 279 278 278 278 278 277 278 278 278

GFSCGP_925_thetae_081.txt.gz
Theta_e
307 308 309 308 307 307 308 309 310 311 311 312 312 313 314 315 315 316 316 316 316 316 316 314 320 327 329 329 329 329 328 327 327 327 326 325 324 324 324 325 324 324 324 325
310 310 309 308 307 308 309 309 310 311 312 313 314 314 314 315 315 316 316 317 317 317 316 315 322 327 328 329 328 327 327 327 326 325 324 323 323 324 324 325 325 325 325 325
312 311 310 309 309 310 311 312 313 314 313 314 315 315 314 314 315 316 315 315 316 316 316 316 324 327 328 329 328 327 326 326 325 325 324 323 323 323 325 326 326 325 325 324
312 310 311 312 314 313 316 314 314 315 317 319 317 321 317 316 316 316 317 317 317 317 315 315 323 327 327 329 328 326 325 324 324 325 324 323 323 324 324 325 324 321 322 324
311 316 316 313 313 314 316 315 316 317 318 319 318 320 318 317 317 317 318 317 318 318 316 316 322 325 327 328 327 324 323 323 324 325 323 323 322 323 324 325 325 323 322 321
311 314 316 316 315 315 315 316 317 318 318 321 318 319 319 319 318 318 317 317 318 318 316 320 324 325 326 327 325 322 322 322 323 324 323 322 323 323 323 325 324 324 324 323
313 316 315 315 316 316 317 318 319 320 322 320 318 319 320 320 324 322 323 324 323 323 316 324 327 327 326 326 323 322 323 321 321 323 321 321 323 322 322 323 323 323 324 322
312 309 315 315 315 314 318 318 319 321 323 323 319 322 322 324 323 323 324 324 323 324 324 321 326 327 327 325 323 324 326 323 320 320 321 319 321 322 321 322 322 322 322 323
310 308 313 315 314 315 318 319 318 320 320 323 321 320 324 324 324 323 323 322 322 324 324 323 323 327 326 325 324 326 324 322 320 320 319 319 320 321 321 320 321 321 321 321
308 310 311 314 315 316 319 318 324 322 322 324 322 323 326 326 325 323 322 320 319 320 324 322 324 326 325 324 324 322 322 321 320 319 320 319 319 320 320 319 319 319 320 321
308 310 313 315 316 317 319 322 320 321 323 322 323 323 325 324 322 323 318 317 317 316 322 325 325 325 325 324 322 321 321 320 320 319 319 318 319 319 319 320 320 319 319 320
311 312 313 316 314 315 317 318 318 321 322 323 321 322 324 323 320 320 315 313 313 313 313 319 324 323 323 322 322 321 320 320 320 320 320 318 318 318 318 318 319 319 319 319
312 315 316 315 317 317 318 317 319 319 318 319 323 321 323 321 319 319 314 311 309 309 310 310 311 318 322 322 321 320 321 320 319 319 319 319 318 318 318 319 319 318 319 319
310 312 311 313 313 313 315 313 313 316 317 321 318 319 319 322 321 320 313 309 306 305 305 305 306 306 307 309 311 313 315 319 319 320 319 319 318 318 318 318 319 319 318 318
309 312 312 311 311 312 313 310 309 310 312 314 312 314 315 317 321 320 312 308 305 303 302 301 301 301 302 302 303 304 305 309 315 313 313 312 316 319 319 318 319 319 319 319
310 312 311 310 309 306 305 304 304 306 309 310 312 314 315 316 320 319 311 307 304 301 300 298 298 297 297 297 298 299 299 300 302 302 302 304 307 309 309 312 316 317 316 316
309 311 309 307 307 305 304 305 304 307 313 314 316 315 315 320 322 318 310 305 302 299 297 297 296 295 294 293 293 294 294 295 295 296 296 297 299 300 301 302 305 305 306 308
308 309 308 307 306 302 303 304 306 307 312 309 313 319 318 314 309 307 305 303 300 297 295 294 294 293 292 292 291 290 291 291 292 292 292 293 295 296 296 296 296 295 296 296
306 308 308 307 307 304 306 307 306 306 305 317 319 316 311 306 303 300 299 297 296 294 293 292 292 292 291 290 289 290 290 289 289 289 290 291 292 293 293 292 291 291 290 289
305 305 307 307 305 303 303 308 310 310 310 311 312 315 310 309 312 302 298 294 293 291 291 290 290 290 290 289 288 288 288 288 287 287 288 288 289 290 290 290 289 288 287 286
307 308 308 308 307 306 309 310 311 305 312 309 306 312 314 310 302 295 293 291 290 291 290 289 288 288 288 288 287 287 286 286 286 286 286 286 287 287 287 288 288 287 287 286
307 308 308 307 308 307 306 309 311 309 308 303 301 301 298 295 293 292 291 290 289 289 289 288 287 286 287 287 286 285 284 284 284 284 284 284 284 285 286 286 286 286 287 286
308 307 309 307 307 306 302 303 300 304 305 302 299 296 295 293 291 290 289 288 288 287 286 286 285 284 284 285 285 284 283 284 284 283 283 283 283 283 284 284 284 284 285 284
306 303 310 308 308 306 303 299 297 296 295 296 296 295 292 290 290 288 287 286 285 284 284 284 284 283 283 282 283 283 283 283 283 283 282 282 282 282 282 282 282 283 283 283
303 302 301 304 304 302 299 298 297 294 292 291 290 291 290 289 287 285 285 284 283 282 282 282 282 282 281 281 281 282 283 282 282 281 281 281 280 280 280 280 280 280 280 281
300 300 301 303 298 299 296 293 292 291 291 290 289 287 286 285 284 283 282 282 281 281 281 281 281 280 280 279 279 279 280 280 280 280 279 279 279 279 279 278 277 277 277 278

GFSCGP_925_thetae_084.txt.gz
Theta_e
308 309 310 309 309 309 309 309 308 310 311 312 313 314 315 316 316 318 319 319 319 319 319 318 319 322 329 332 335 336 335 334 332 330 330 328 329 327 327 326 326 327 327 327
311 309 309 308 308 309 309 310 311 311 312 314 315 317 317 317 317 317 318 320 320 320 320 320 319 323 329 332 334 335 334 333 331 329 328 328 327 327 328 327 328 328 326 326
313 312 312 311 311 311 311 311 311 314 316 316 318 319 318 318 317 317 317 318 319 320 320 320 320 321 328 330 334 333 332 333 330 329 328 328 327 326 326 327 328 327 326 325
313 312 312 311 311 311 311 313 315 316 318 319 318 321 319 319 319 318 319 319 319 319 320 320 320 321 327 329 333 331 332 332 329 328 328 327 326 325 326 326 325 325 324 324
311 311 312 312 311 313 315 315 316 317 318 319 319 321 319 319 320 321 320 320 320 320 320 320 321 320 326 329 333 331 331 331 328 328 328 326 325 325 327 326 325 324 323 323
310 313 316 315 315 312 315 316 316 317 319 323 319 320 320 322 325 325 324 324 323 324 324 323 322 321 325 329 332 330 328 328 328 329 328 326 325 325 325 325 324 323 321 321
310 311 312 316 316 317 316 316 315 322 324 320 319 321 321 324 325 326 327 326 326 327 328 327 325 326 327 331 331 326 326 326 327 329 327 326 325 325 324 325 324 324 322 321
313 313 314 315 315 314 316 314 316 318 320 320 320 323 325 325 325 325 324 324 324 325 328 328 325 327 328 331 326 325 325 326 326 328 326 324 325 324 323 325 325 324 323 322
313 311 313 316 315 314 317 320 317 321 320 322 318 320 324 323 324 323 323 322 322 322 324 329 325 329 329 330 324 324 325 325 325 326 323 322 324 324 323 323 324 325 325 324
312 312 313 316 316 316 318 317 322 322 323 322 319 321 324 326 325 322 322 321 319 317 317 323 326 328 329 328 325 326 329 324 324 323 323 322 324 324 323 323 324 323 323 322
312 312 315 316 317 317 320 320 321 322 323 324 320 322 326 324 322 321 321 318 315 314 313 316 327 327 327 326 327 326 326 323 323 323 323 321 322 323 323 322 322 322 322 322
313 313 313 315 315 315 316 318 319 322 323 323 325 323 325 323 321 320 318 315 312 309 309 311 314 326 325 325 324 324 324 322 323 322 322 322 323 322 321 321 323 323 323 322
307 314 314 315 316 316 318 319 320 319 319 321 323 323 321 321 321 320 318 314 309 306 305 306 307 310 319 323 323 323 323 323 322 321 321 321 321 320 320 320 323 322 321 321
305 314 314 314 314 317 318 316 317 318 321 321 319 317 316 314 315 320 316 311 308 304 302 302 303 304 305 308 311 317 321 321 321 321 321 320 320 319 319 319 322 319 319 320
309 316 314 311 310 311 312 312 311 313 314 314 312 310 312 316 318 319 314 309 305 302 300 299 299 299 299 301 303 304 307 311 315 312 312 311 316 318 319 319 321 322 321 321
306 315 313 312 310 307 306 306 305 306 307 309 313 315 316 317 317 318 313 308 303 300 298 297 296 296 295 296 297 298 299 301 302 303 303 304 305 308 310 312 313 315 315 317
311 310 310 311 307 305 306 306 308 310 312 314 315 316 316 319 320 315 310 305 301 298 296 295 295 293 292 292 293 294 295 296 296 297 298 299 299 300 300 302 302 301 300 302
310 311 307 307 306 305 306 309 307 307 312 314 315 318 316 312 305 304 303 302 299 297 295 294 293 292 291 291 291 292 292 292 293 294 295 295 296 296 295 295 294 293 293 291
308 310 308 307 306 305 306 308 309 309 311 313 312 313 313 305 302 299 297 296 295 294 292 292 291 291 290 290 290 290 290 290 291 291 291 292 293 293 293 291 291 290 289 288
307 309 310 308 305 303 310 308 310 311 312 311 311 310 311 309 314 298 295 294 292 291 290 290 290 289 290 289 289 290 289 289 289 289 289 291 291 291 291 290 289 288 288 287
309 308 309 308 307 307 309 309 309 311 312 310 306 303 307 310 299 293 292 291 290 290 290 289 289 288 288 289 289 288 288 288 287 288 288 289 289 289 290 290 290 289 289 288
307 308 309 307 308 308 307 309 310 308 308 305 300 298 295 293 292 291 291 290 290 289 289 288 288 288 288 288 287 287 287 286 286 286 286 286 287 288 288 289 289 289 289 289
309 309 311 308 312 306 303 304 302 301 303 301 299 295 293 292 291 290 289 289 288 287 287 286 287 286 286 286 287 286 286 285 285 286 286 285 285 286 287 288 288 288 288 288
307 305 312 310 306 303 302 299 297 296 296 295 295 294 292 291 289 289 288 287 287 286 286 285 285 285 285 285 285 285 285 285 285 285 285 284 284 285 284 284 284 285 286 286
305 304 304 307 303 300 297 296 296 295 293 292 292 291 290 289 288 287 286 286 285 285 285 285 284 284 283 283 283 284 285 285 284 284 284 283 283 281 280 280 281 280 279 281
301 301 304 305 299 300 296 294 293 292 291 291 290 288 287 286 286 285 284 284 284 284 283 283 283 282 282 281 281 280 282 283 284 283 283 283 282 282 281 280 278 277 277 277

GFSCGP_925_thetae_087.txt.gz
Theta_e
310 309 311 310 312 312 311 311 311 311 311 311 312 314 314 314 315 316 317 318 320 320 321 320 319 319 322 326 332 336 340 338 339 337 333 332 331 331 331 329 329 330 330 329
311 312 312 311 311 310 311 312 311 311 312 313 315 317 317 317 317 317 318 319 319 320 321 321 320 320 323 329 333 336 339 338 338 334 333 332 331 330 331 331 329 328 329 328
314 313 313 311 310 311 311 311 312 312 312 315 317 317 317 318 319 319 319 319 319 320 321 321 321 320 324 329 333 336 338 338 337 334 333 331 330 329 329 329 328 331 330 329
313 314 313 313 312 312 313 312 312 312 316 317 318 320 318 318 319 320 320 320 320 319 320 321 322 321 323 329 332 335 337 337 336 334 333 331 330 329 328 328 329 330 329 329
312 313 313 314 313 312 312 313 316 316 318 318 317 318 318 319 321 323 324 323 324 321 321 321 321 321 320 326 330 335 336 335 336 334 332 331 329 328 327 328 328 328 327 325
311 312 313 313 313 312 313 315 316 316 317 320 317 318 316 321 326 326 326 326 327 327 326 324 323 322 320 324 331 336 335 335 333 333 332 331 329 327 327 328 328 327 325 323
311 311 311 312 315 316 313 316 318 319 322 320 318 319 319 325 325 326 326 325 325 325 327 330 328 325 323 326 332 336 334 335 332 333 332 330 328 327 326 328 327 325 323 322
313 313 312 311 314 316 316 317 317 315 317 321 320 320 321 325 324 323 324 324 324 324 324 326 331 328 326 326 332 334 331 331 330 332 332 330 327 326 326 328 326 326 324 321
316 314 313 314 314 315 314 316 315 315 316 319 319 316 325 324 324 323 323 322 323 323 322 322 325 328 328 330 331 329 329 329 330 333 331 328 327 326 325 327 327 325 325 323
315 316 314 314 316 315 315 315 320 320 320 320 317 318 326 327 324 322 322 322 322 321 319 316 320 325 329 331 328 327 328 328 329 332 329 326 326 325 325 326 326 326 326 324
312 315 314 315 317 316 316 320 319 320 320 322 322 326 327 324 322 322 320 321 319 318 315 310 311 313 329 328 326 326 327 327 328 329 326 325 325 325 325 325 325 325 325 325
308 314 316 315 315 315 317 317 318 321 319 320 324 324 324 322 322 322 320 319 316 314 311 306 306 307 323 327 327 327 327 326 326 326 324 324 324 325 324 323 324 324 324 323
306 312 316 314 317 315 316 318 318 320 321 323 323 324 323 318 316 320 321 319 316 311 307 304 303 303 305 313 325 325 324 324 324 325 323 324 323 323 322 322 323 324 323 323
306 309 311 316 315 317 316 316 318 320 323 320 320 319 317 314 317 318 321 317 313 309 304 301 299 299 299 302 306 309 323 324 323 322 322 322 322 322 322 321 323 323 322 322
308 308 309 314 315 316 317 317 317 318 318 318 315 312 312 317 317 322 319 314 310 305 302 298 297 297 296 297 299 301 304 312 317 315 314 313 318 320 320 319 319 320 320 320
305 310 307 317 311 311 311 311 310 309 308 308 309 313 319 321 321 319 314 309 306 302 299 296 295 294 294 294 295 297 298 301 304 305 304 305 306 309 310 313 312 313 314 314
305 308 314 316 312 309 309 308 308 309 312 315 319 319 317 312 306 305 306 303 300 298 296 295 293 292 292 292 293 293 294 296 297 298 299 300 300 300 299 300 303 303 303 305
305 307 311 312 308 310 310 309 308 308 314 313 313 314 312 305 300 298 297 298 296 295 295 295 293 291 291 290 291 291 292 292 293 294 295 295 295 294 294 294 293 293 295 294
305 309 314 311 312 306 308 309 310 311 315 313 312 312 311 303 301 298 295 294 293 293 291 291 290 290 290 290 290 290 290 290 291 291 292 293 292 291 291 290 289 289 289 288
308 309 312 308 306 307 312 310 309 310 314 311 309 308 309 309 313 300 294 293 292 290 290 289 288 289 289 289 289 289 289 289 289 289 290 291 291 291 290 290 289 288 288 287
308 308 309 309 307 309 310 310 310 311 315 309 306 302 299 300 298 293 292 292 290 290 289 289 289 288 287 288 288 289 288 288 288 289 289 289 290 290 291 291 290 290 289 289
307 308 309 308 308 310 308 310 313 307 307 304 301 297 294 293 292 292 292 292 291 290 290 289 289 288 288 287 287 288 288 288 287 287 288 288 289 290 290 291 291 290 290 290
310 310 313 314 313 307 304 304 302 301 300 300 298 296 294 293 292 292 291 290 290 289 288 288 288 287 287 287 287 287 286 287 287 287 287 287 286 286 288 289 289 290 289 289
308 307 310 311 305 303 302 302 299 297 296 296 297 295 293 292 291 290 290 290 289 288 288 287 286 286 285 286 287 286 287 287 286 285 284 283 284 284 284 283 283 283 286 286
306 307 306 306 303 302 300 298 297 295 294 294 293 292 291 291 290 290 289 289 288 287 286 286 285 285 284 284 284 285 287 287 286 286 285 284 282 281 279 279 280 280 279 281
302 301 304 305 300 301 297 296 294 293 293 292 291 289 289 288 287 286 286 286 286 285 285 284 284 283 283 283 282 282 284 285 285 285 285 284 284 283 281 279 277 277 278 278

GFSCGP_925_thetae_090.txt.gz
Theta_e
311 310 309 310 311 311 312 312 313 313 313 312 313 312 312 313 314 314 314 314 315 317 319 320 321 321 321 319 321 344 343 342 341 341 339 337 334 332 332 331 331 330 332 332
314 312 311 311 312 312 312 312 311 311 312 313 312 312 314 315 317 317 316 316 317 317 319 320 321 321 321 321 324 343 343 341 341 341 337 335 334 332 331 328 329 329 332 331
313 314 313 313 312 312 311 311 310 310 311 312 313 313 315 315 317 317 318 317 317 318 319 320 322 322 322 325 331 341 343 340 340 340 336 334 332 332 331 330 329 328 330 331
311 312 313 313 314 313 313 313 312 312 312 312 314 318 317 316 316 319 320 321 322 321 320 319 321 323 322 327 331 338 342 339 340 337 336 334 332 331 330 330 329 329 330 329
312 312 312 313 314 314 313 313 312 313 315 317 316 318 316 315 316 318 325 325 328 328 324 320 320 323 322 327 332 335 340 339 338 336 336 334 332 330 329 330 330 330 330 329
310 311 312 313 313 313 313 312 313 314 316 320 315 316 316 315 327 327 326 326 326 326 327 328 328 324 321 326 333 335 339 338 338 335 336 333 332 330 329 329 328 328 327 325
312 311 311 312 313 313 315 315 315 316 320 320 316 320 317 324 326 326 325 324 325 325 326 326 327 330 327 325 333 336 338 338 338 336 335 333 332 329 329 329 328 327 324 322
312 313 313 312 312 313 314 315 315 319 319 318 320 326 320 326 324 323 323 323 323 324 324 324 325 326 324 329 336 337 337 336 336 335 334 333 331 329 329 329 327 326 325 323
317 315 315 314 313 311 313 320 315 319 319 320 316 323 323 326 324 322 322 322 322 322 321 320 320 320 320 331 336 337 336 335 334 334 333 332 330 328 327 329 327 325 324 323
312 315 311 312 315 313 314 315 320 320 323 318 315 316 319 325 323 321 321 321 320 319 318 314 315 314 323 332 332 332 332 332 331 333 334 331 328 327 327 327 325 326 325 324
309 313 312 312 319 317 314 317 318 320 320 321 324 327 326 324 325 321 320 319 317 316 314 310 309 307 309 320 329 329 329 329 330 331 332 328 328 326 325 327 327 326 326 325
309 309 311 312 312 317 315 315 317 321 321 319 322 324 322 323 321 321 321 318 315 312 310 306 304 303 304 305 310 327 328 328 329 330 327 327 325 324 325 326 326 326 326 325
307 307 310 312 311 316 319 319 318 318 321 325 328 324 318 318 318 321 320 317 313 309 307 303 301 300 300 300 302 306 327 327 326 325 325 324 325 324 324 325 324 324 324 323
306 306 307 311 311 310 315 319 318 320 325 322 324 321 320 321 321 321 318 314 309 306 303 301 298 297 297 297 298 300 306 324 325 324 324 324 323 323 322 323 324 324 323 323
306 308 307 308 308 309 313 319 317 319 319 323 319 317 321 319 317 314 313 310 306 303 300 298 296 295 295 295 295 296 298 306 315 316 315 316 321 321 320 322 321 321 321 321
304 305 308 307 307 309 315 317 317 317 317 318 314 320 316 311 307 308 305 303 301 298 297 295 294 294 293 293 293 294 295 298 303 305 305 309 311 311 309 311 313 315 314 314
305 304 307 307 307 315 319 313 314 311 315 316 317 317 313 310 304 300 301 298 297 295 294 293 293 292 291 291 291 292 293 294 296 297 298 301 301 301 301 301 303 301 302 304
304 305 307 307 308 319 311 309 310 316 314 313 313 312 311 304 299 297 296 295 294 293 292 292 291 291 290 290 290 290 291 292 292 293 294 294 295 294 294 294 293 293 293 294
304 305 308 313 314 312 311 310 311 313 316 310 310 309 308 303 300 297 294 293 292 291 290 290 289 289 289 289 289 290 290 290 290 290 290 291 291 291 290 290 289 289 289 289
304 306 308 314 312 312 316 310 310 310 318 308 307 305 303 306 310 297 294 293 292 290 290 289 288 288 289 289 289 289 288 289 289 289 289 290 290 290 289 289 288 288 287 286
307 309 312 313 311 315 308 309 309 311 313 305 303 299 296 296 294 293 292 291 290 290 290 289 288 288 288 288 289 288 288 288 288 289 289 290 290 290 290 290 289 289 288 286
309 309 310 311 310 314 306 308 310 305 302 301 299 296 294 293 292 292 292 292 291 291 290 289 288 288 287 287 287 287 288 288 288 287 287 286 287 288 290 290 290 289 288 287
312 311 314 312 310 305 303 302 300 300 300 299 298 296 294 292 292 291 291 290 289 289 289 288 287 288 287 287 288 287 286 285 285 284 284 284 284 285 285 285 286 288 288 287
309 307 310 310 305 302 301 299 297 297 297 297 296 294 292 291 291 291 291 290 289 289 288 287 286 285 285 285 287 286 286 285 284 283 282 281 281 281 281 281 282 282 284 284
303 305 306 305 303 301 298 297 296 295 294 293 292 292 292 291 290 289 289 288 288 287 286 286 285 284 283 283 283 285 286 286 286 285 284 282 280 279 279 279 279 279 279 281
300 300 302 303 299 300 297 295 294 293 293 292 290 290 289 288 287 286 286 286 285 285 284 284 283 283 282 282 282 283 284 285 285 284 285 284 283 280 279 277 277 277 278 278

GFSCGP_925_thetae_093.txt.gz
Theta_e
307 304 304 304 305 307 308 308 308 309 309 309 309 309 309 309 309 309 310 310 311 311 311 313 315 318 317 318 317 331 342 342 341 340 340 337 335 335 334 334 332 332 332 333
310 309 308 308 308 309 309 309 309 309 310 309 308 309 309 309 310 311 312 312 312 311 313 313 314 317 319 318 318 335 342 342 341 340 339 337 336 334 332 333 331 331 332 333
308 312 312 311 310 311 311 310 309 310 309 308 308 309 309 311 312 313 314 313 314 312 313 314 315 316 319 319 321 340 342 341 340 340 337 336 334 332 331 330 329 329 329 331
309 309 310 311 312 311 312 311 312 312 311 310 310 312 312 314 314 315 315 317 315 323 323 317 314 316 318 320 329 340 341 340 339 340 337 336 332 331 330 329 328 328 328 329
310 310 310 311 311 311 313 313 313 312 310 313 314 315 314 315 315 313 325 325 323 322 323 323 324 325 322 322 340 341 340 339 339 338 336 335 332 331 331 329 329 327 328 329
308 308 308 308 310 311 312 312 312 310 310 314 313 314 314 313 314 327 326 325 324 323 322 322 323 323 324 325 338 340 339 339 338 336 336 333 332 330 330 330 329 329 329 329
311 312 310 308 308 310 312 312 313 314 314 315 317 321 318 322 325 327 326 324 323 321 321 320 319 319 320 320 325 339 338 338 337 336 336 333 333 331 329 328 329 330 330 328
313 312 312 312 309 310 311 312 317 317 315 315 317 323 320 323 319 320 323 321 320 319 317 315 315 314 314 323 329 335 337 337 335 335 335 334 332 330 329 329 328 328 326 325
315 314 311 310 312 312 312 314 315 319 317 317 316 316 319 320 319 317 320 318 317 316 313 311 310 310 309 313 330 335 336 335 335 334 335 333 332 330 328 328 328 326 325 324
308 310 309 310 314 313 314 312 316 318 324 322 317 315 327 325 321 321 319 316 314 312 309 307 306 305 305 308 315 331 332 332 334 334 334 332 331 328 329 328 327 326 324 323
307 309 308 308 312 316 316 316 316 318 318 320 324 326 322 319 318 322 317 314 311 309 306 304 302 301 301 303 307 314 329 328 331 332 333 332 328 327 328 327 326 325 324 323
307 307 308 306 305 306 315 318 317 319 319 321 320 322 316 317 318 320 315 311 307 304 302 300 299 299 299 299 301 304 314 329 329 331 331 328 327 326 326 325 325 326 326 324
306 304 304 301 306 310 314 313 313 314 319 319 321 325 315 318 317 313 310 307 304 301 300 298 297 297 297 297 298 300 303 315 328 328 327 326 325 324 324 325 327 326 326 325
304 305 304 303 304 306 308 310 310 314 320 321 324 322 320 317 313 310 307 304 301 299 298 296 295 295 295 295 295 297 299 307 323 325 324 324 324 324 324 324 324 324 324 323
303 304 305 305 305 306 308 308 310 315 319 320 319 319 316 312 310 307 304 301 299 297 296 295 294 294 293 293 294 295 296 300 307 313 318 317 322 321 322 323 323 322 323 321
303 304 302 304 304 305 307 309 313 314 317 318 316 318 310 306 304 303 300 299 297 295 294 293 293 292 292 292 293 293 294 296 298 300 302 306 315 317 315 314 313 316 314 313
301 301 301 301 305 306 311 315 313 314 316 315 319 314 308 303 301 299 298 296 295 293 292 292 291 291 291 290 291 292 292 293 293 294 295 296 298 302 305 304 303 304 303 303
300 302 304 304 305 312 313 312 314 312 309 310 309 308 304 300 297 295 294 293 292 291 291 290 290 290 289 289 290 291 291 291 291 291 291 292 292 292 294 296 294 293 295 294
300 301 305 308 308 314 313 312 312 313 310 306 305 303 302 298 296 295 293 291 290 290 289 289 289 289 289 289 289 289 289 290 290 290 290 290 290 290 289 289 289 289 289 288
302 303 305 309 311 316 310 306 307 310 311 303 301 299 300 302 305 293 292 291 290 289 289 289 288 288 288 288 288 289 288 288 288 288 289 289 290 289 288 288 287 286 286 285
305 306 307 307 309 311 304 305 306 310 309 300 297 295 293 294 293 292 291 291 290 290 289 288 288 287 287 287 288 287 287 287 287 288 288 288 288 289 288 288 287 286 285 285
306 310 313 311 312 309 301 304 307 304 300 298 295 293 292 292 291 290 290 289 289 289 288 288 287 287 287 286 286 286 285 285 285 285 285 286 286 286 287 288 287 287 286 285
311 310 310 309 307 301 298 299 299 299 299 296 294 293 291 289 289 288 289 289 288 287 287 286 286 285 285 287 286 285 284 284 284 284 283 283 284 284 285 285 285 284 285 284
304 304 307 305 301 299 298 297 296 295 295 294 293 291 291 289 289 289 288 288 287 286 286 285 284 284 283 284 285 286 285 284 283 281 281 281 281 281 281 281 282 282 281 281
300 301 304 304 301 298 296 296 295 293 292 291 291 290 289 287 287 287 287 286 286 285 284 283 283 283 283 283 284 285 285 285 285 283 281 280 279 278 279 279 279 279 279 279
298 299 300 299 297 297 296 294 293 293 292 290 288 287 287 286 286 285 285 285 284 284 283 283 282 282 281 282 282 283 284 284 284 284 284 281 280 278 277 276 277 278 278 279

GFSCGP_925_thetae_096.txt.gz
Theta_e
306 303 303 302 303 306 307 307 307 306 306 308 308 307 307 305 305 305 307 306 306 307 309 309 311 313 313 315 314 330 338 342 342 339 338 338 338 338 337 336 334 336 336 334
309 305 305 305 305 305 305 306 306 307 307 308 307 307 307 307 306 308 308 309 309 310 310 310 310 312 313 314 315 324 337 341 341 340 339 337 336 336 335 334 335 333 334 332
309 309 310 308 308 309 308 307 308 309 308 307 306 308 308 309 308 308 309 309 311 312 312 312 311 310 313 314 316 324 336 340 340 340 339 337 334 334 335 335 333 332 331 330
306 306 307 308 310 310 310 309 310 310 310 311 308 311 311 311 311 312 312 313 320 320 321 322 321 322 322 322 316 322 336 339 340 339 337 335 334 333 332 332 332 330 329 330
309 308 308 308 308 309 310 310 311 311 310 309 312 311 311 310 311 312 313 324 322 320 321 320 320 319 319 321 324 329 338 340 339 338 337 335 334 332 331 331 331 329 328 328
307 307 307 307 307 308 309 311 310 310 309 312 312 311 312 311 315 321 324 324 322 320 317 315 314 315 315 316 324 337 339 340 338 336 335 336 332 330 329 329 329 328 327 326
307 306 307 309 309 308 309 311 313 313 311 313 310 312 312 314 321 319 320 321 318 314 313 312 310 310 311 312 315 328 339 338 337 336 334 333 332 330 330 329 327 327 326 326
313 313 309 308 310 310 308 311 314 319 316 314 313 316 318 322 320 319 317 318 314 311 309 307 308 307 307 309 312 325 337 337 335 334 333 332 331 331 330 329 328 328 327 327
312 312 306 308 307 311 312 311 311 314 314 318 315 313 319 320 319 318 316 315 311 308 305 304 304 304 303 305 308 315 335 336 335 334 332 332 332 330 329 328 328 328 328 328
308 308 307 307 304 307 313 312 314 313 318 317 316 315 321 320 318 317 317 312 307 304 302 302 302 301 301 302 304 309 324 332 332 331 332 331 331 330 329 328 328 329 328 325
305 307 306 305 305 307 304 312 316 317 316 317 318 319 318 319 317 317 315 308 304 301 299 299 299 299 299 299 300 303 308 321 325 327 330 330 329 329 328 328 327 327 325 324
306 305 307 304 303 302 303 306 316 319 319 317 317 319 316 315 316 314 308 305 302 299 297 296 297 296 297 297 297 300 302 311 321 319 328 330 327 328 328 327 326 326 324 323
305 302 303 301 300 305 306 306 310 312 314 317 318 319 313 313 308 306 305 301 299 298 297 295 294 295 295 295 296 297 298 302 316 326 328 326 326 327 327 326 325 325 324 324
303 304 303 302 301 304 305 306 307 310 312 315 317 319 318 311 310 307 304 300 298 296 295 294 293 293 293 293 294 295 296 299 307 324 324 324 325 325 325 325 326 326 325 324
301 303 303 304 303 302 302 303 303 306 309 316 317 318 311 309 306 303 301 299 297 295 294 293 293 292 292 292 292 294 295 297 299 304 312 314 322 323 324 324 323 323 324 322
302 299 302 301 301 301 304 304 306 306 314 315 318 315 307 304 302 300 298 296 295 293 293 292 291 291 291 291 291 292 293 295 295 297 298 302 308 312 313 317 317 316 315 315
300 298 300 299 301 303 302 304 305 313 311 315 316 311 305 301 298 296 295 294 292 292 291 291 290 290 290 290 290 290 291 292 293 292 293 294 296 297 299 300 304 305 303 304
298 296 298 301 303 305 311 312 310 309 308 307 307 305 301 297 295 293 292 291 290 290 290 289 289 289 289 289 289 289 289 290 291 291 291 291 291 291 292 293 292 294 295 295
298 298 300 303 305 305 307 309 309 311 306 303 302 301 299 296 294 293 292 290 289 289 288 288 288 288 288 288 288 288 288 288 288 289 289 290 290 289 288 289 287 287 288 288
298 299 301 305 307 310 307 302 302 307 307 299 297 296 301 298 302 293 291 291 290 288 288 287 287 287 287 287 287 286 286 286 286 287 287 288 288 288 289 287 286 285 285 285
302 302 303 304 307 309 302 301 303 309 305 297 294 293 294 294 293 291 291 290 289 288 287 286 286 287 286 286 285 285 284 284 284 285 285 286 287 287 287 287 286 286 285 284
306 307 308 306 308 308 299 301 305 303 297 295 293 292 291 289 288 287 288 287 287 286 285 285 285 285 285 285 284 284 283 283 283 284 284 284 285 285 286 286 285 284 284 283
306 305 305 305 302 299 298 298 298 297 296 295 294 291 290 289 287 287 288 288 286 285 284 284 284 284 284 285 285 284 283 282 282 282 282 282 283 284 284 284 283 283 283 282
301 300 304 302 299 298 297 295 294 294 293 293 292 290 289 288 287 287 287 286 285 284 283 283 283 283 283 284 285 285 284 283 282 281 280 280 280 280 281 281 282 281 281 280
298 299 301 299 298 297 295 295 293 292 291 291 289 288 287 286 286 285 285 284 284 283 282 282 282 282 282 282 283 284 284 284 282 281 280 279 278 279 279 279 279 279 279 280
296 298 299 298 296 296 294 292 293 291 290 288 287 286 285 284 284 283 283 283 283 282 281 281 281 280 280 281 282 283 283 283 283 283 281 279 277 277 277 277 278 279 279 279

GFSCGP_925_thetae_102.txt.gz
Theta_e
303 302 303 304 302 304 306 306 305 303 303 304 304 304 303 303 303 301 302 302 302 303 303 309 316 316 315 311 307 309 309 315 337 339 338 337 337 336 335 334 332 332 334 335
307 304 303 302 302 302 302 303 303 303 303 302 303 305 306 304 304 304 304 303 303 309 316 316 314 313 314 315 316 310 308 314 334 338 339 338 338 337 336 335 335 332 334 334
306 308 308 304 306 305 304 304 305 306 306 305 304 307 307 307 305 306 308 309 317 316 314 314 312 311 311 312 313 313 317 318 331 337 339 337 338 336 336 335 336 336 336 336
303 304 306 306 306 305 307 305 307 307 308 308 306 310 308 307 308 308 319 316 313 311 311 310 309 309 309 310 310 313 315 319 329 336 338 336 336 335 335 335 335 336 337 337
305 307 306 306 306 305 306 307 307 307 307 308 306 308 308 307 307 319 318 314 310 307 306 306 306 306 306 306 308 309 312 315 322 336 336 336 335 334 334 334 334 334 334 336
305 306 307 307 307 306 306 307 307 306 307 310 308 308 309 307 316 319 317 314 310 306 303 303 303 302 303 303 304 306 308 311 322 336 337 335 334 334 333 333 332 332 333 336
308 306 306 306 309 307 305 307 310 309 310 312 310 308 309 317 319 318 317 311 307 303 301 300 300 300 300 300 301 303 305 308 319 332 336 336 334 334 333 332 332 331 331 330
307 305 306 305 306 304 305 308 309 313 314 311 309 309 309 318 315 313 312 308 305 301 300 299 298 298 298 298 299 301 303 306 314 331 335 336 334 333 331 331 330 330 330 330
310 310 305 304 304 302 305 310 310 313 311 313 310 309 316 317 316 316 312 307 304 300 299 298 297 296 296 296 297 299 301 304 311 335 334 334 333 332 330 331 330 330 329 328
306 303 304 304 301 301 302 302 306 308 314 315 311 311 311 317 316 314 310 305 302 299 297 296 296 295 295 295 295 297 300 303 307 319 333 332 330 330 330 329 329 328 328 327
302 302 304 300 302 300 300 300 303 310 310 312 315 314 316 315 313 311 307 303 300 297 296 295 294 293 293 294 294 295 298 300 304 310 324 329 328 329 328 328 327 327 327 327
303 303 303 301 300 300 301 306 308 299 303 307 307 310 313 311 308 307 304 301 297 296 295 293 293 292 292 293 293 294 296 298 300 305 319 325 328 327 327 326 325 325 326 326
302 301 302 298 300 301 302 302 304 305 306 305 304 307 312 311 308 305 302 298 296 295 294 292 292 292 291 292 292 293 294 296 298 302 315 324 325 326 326 326 325 325 325 325
301 301 300 299 300 302 303 302 301 300 295 301 304 304 304 309 305 301 298 297 295 293 293 292 291 291 290 290 291 291 292 294 296 297 300 305 312 323 325 324 326 324 325 325
299 301 302 302 301 302 302 302 301 301 300 301 300 301 303 306 301 298 296 295 294 292 292 291 290 290 290 289 289 290 290 292 294 294 295 295 299 309 316 320 323 321 323 322
299 296 301 301 301 301 300 298 298 299 300 301 301 302 306 300 297 295 294 293 292 291 290 290 289 289 289 288 288 288 289 290 292 293 293 294 294 294 298 303 312 315 317 316
298 298 298 296 297 297 297 299 300 301 305 301 302 303 301 298 295 293 292 291 290 290 289 289 288 288 287 287 287 287 287 287 288 290 291 292 294 291 291 292 296 298 299 301
298 295 295 298 298 296 296 304 304 305 303 304 307 305 300 295 293 291 290 289 289 288 287 288 287 286 286 285 285 285 285 286 286 287 288 289 290 291 293 290 288 289 291 291
296 296 293 295 295 297 301 302 303 304 301 299 303 298 295 293 292 291 290 289 288 287 286 286 286 285 285 284 284 284 284 284 284 285 285 287 287 288 289 288 287 287 287 287
296 297 292 293 297 303 300 300 300 303 304 297 297 299 296 295 299 291 289 287 287 286 285 285 285 285 284 283 283 283 282 282 282 283 283 284 285 285 286 286 285 285 285 285
299 299 298 297 300 301 297 297 300 307 300 294 293 294 298 292 291 288 287 286 285 284 285 284 284 284 285 283 282 282 281 281 282 282 283 283 283 283 284 284 284 284 284 284
302 300 300 301 301 303 296 298 301 297 294 292 291 290 289 287 286 286 285 285 284 283 283 283 283 283 283 284 282 282 281 281 281 281 281 282 282 283 283 283 283 284 284 284
301 301 302 301 299 296 295 295 295 294 293 291 290 289 288 286 285 284 284 283 283 282 282 282 282 282 281 282 283 282 281 281 281 281 280 281 281 281 282 283 282 282 282 283
298 299 300 300 297 296 294 293 292 291 291 290 289 287 286 285 284 283 283 282 282 281 281 281 280 280 280 280 281 282 282 280 280 280 279 280 281 281 281 280 281 281 281 282
296 297 299 298 296 294 293 291 290 289 288 287 286 285 284 284 283 282 282 281 280 280 279 280 279 279 279 280 281 282 282 281 279 278 279 279 278 280 280 280 281 281 281 282
295 296 297 295 295 294 291 290 289 288 287 286 285 283 283 282 281 280 279 279 279 279 278 278 278 278 279 279 280 280 281 281 280 278 276 278 278 278 278 278 278 279 280 280

GFSCGP_925_thetae_108.txt.gz
Theta_e
308 309 310 311 311 311 311 311 311 312 311 309 310 312 313 313 313 313 313 314 313 316 319 319 319 318 319 319 319 319 321 322 322 315 324 331 336 336 335 338 338 337 337 336
308 308 309 309 309 309 309 310 311 311 311 311 313 313 313 313 314 313 313 314 319 319 319 318 317 316 316 316 316 316 317 318 320 321 318 327 331 333 333 335 337 337 336 335
311 311 311 310 310 311 311 311 311 311 311 312 312 313 313 312 312 313 317 320 319 318 317 316 314 313 313 313 313 313 314 314 316 319 321 322 329 332 333 334 335 335 336 334
312 312 311 310 311 310 311 310 310 310 310 311 312 312 312 312 313 316 319 320 319 316 314 313 312 311 310 310 310 310 311 311 312 315 319 323 326 332 332 333 333 334 335 336
313 308 308 311 310 310 310 308 310 310 311 312 312 312 311 312 313 316 320 320 316 313 312 311 310 308 308 308 308 308 308 308 310 310 313 317 323 329 332 332 333 334 334 334
309 308 309 309 309 309 309 310 310 311 311 313 311 311 309 312 312 318 321 316 314 313 311 310 308 306 306 305 305 305 304 305 306 307 309 312 317 324 332 332 334 334 335 334
309 309 309 309 310 309 309 311 313 313 313 311 311 310 310 314 318 319 318 316 313 311 310 308 306 305 304 303 302 301 300 300 302 302 305 309 312 320 327 334 335 335 336 334
310 311 309 307 309 310 310 311 311 310 310 311 312 312 315 319 317 315 312 311 309 308 308 306 304 303 302 301 300 298 296 297 298 299 302 305 308 313 326 332 333 335 335 334
310 309 306 305 304 305 309 311 309 312 311 313 310 311 319 317 317 315 312 310 308 305 306 304 303 301 299 298 297 294 294 294 295 297 299 302 306 312 326 332 333 334 335 334
310 310 307 306 304 303 306 305 310 312 309 306 306 307 310 317 316 312 309 308 307 305 304 303 302 299 297 296 295 292 292 293 294 296 298 302 305 314 330 333 333 333 334 334
309 308 306 304 305 306 304 303 304 307 308 308 306 306 317 315 312 310 308 306 305 304 303 301 300 298 296 295 293 292 291 291 292 295 298 301 310 329 331 332 333 332 333 332
305 305 305 304 303 303 302 302 302 306 303 306 308 308 314 313 310 308 307 305 303 302 301 300 298 296 294 293 292 290 289 290 291 294 297 300 306 319 329 331 331 331 332 331
305 304 303 302 303 304 303 305 305 307 306 306 308 308 313 309 308 306 305 303 302 300 299 298 297 295 292 290 289 288 288 289 290 293 296 298 300 302 314 325 327 328 328 328
303 303 301 300 303 304 304 303 303 304 306 304 304 305 306 306 305 305 304 302 300 299 297 296 295 294 291 289 288 287 287 288 289 291 293 295 295 297 301 311 320 324 325 325
303 302 302 301 300 301 301 301 302 303 303 304 303 304 304 303 303 304 301 300 298 296 294 293 293 293 290 289 287 286 286 287 287 289 290 291 293 293 301 299 308 318 321 322
303 303 302 301 301 300 300 300 300 301 301 301 301 302 301 303 302 301 299 297 296 294 292 292 291 291 289 288 287 286 286 285 286 287 288 290 291 291 292 292 293 297 302 303
303 302 301 300 298 298 299 299 299 299 301 301 304 305 305 303 300 299 297 295 293 291 291 290 290 289 288 287 287 286 285 285 285 285 286 287 288 290 290 291 290 290 291 292
300 301 299 299 299 299 304 303 303 303 305 305 303 304 306 301 296 294 292 292 290 290 289 289 288 287 287 286 286 286 286 285 285 285 285 285 286 287 288 289 289 288 287 288
299 299 300 300 300 300 300 302 302 303 305 300 301 300 298 295 294 292 290 289 289 288 287 287 286 287 286 285 285 285 285 285 285 285 285 285 285 286 286 286 286 286 287 285
300 300 300 301 301 302 304 300 299 301 304 297 299 298 296 297 302 293 289 289 288 287 286 286 285 285 285 284 285 284 284 284 284 284 285 285 285 286 286 286 285 284 284 283
302 301 302 302 303 303 299 298 299 304 301 294 295 298 297 296 294 289 288 287 286 286 286 286 285 284 284 283 284 284 283 283 283 284 284 285 285 286 286 286 286 285 285 284
303 303 303 303 304 305 297 298 301 297 294 293 293 295 291 290 289 288 287 287 286 286 286 286 286 284 284 283 283 283 283 283 283 284 283 284 284 285 285 286 286 286 286 285
305 303 306 303 303 297 295 295 294 294 294 292 291 290 289 288 288 287 287 286 285 285 285 285 285 284 284 283 283 283 282 283 283 283 283 283 283 284 284 284 285 285 285 286
301 300 302 301 297 296 295 293 292 292 291 290 289 289 288 287 287 286 286 286 285 284 284 284 283 283 283 283 283 283 282 282 283 283 283 283 282 282 282 283 282 282 284 284
299 300 301 299 296 295 293 292 291 290 289 288 288 287 287 286 286 286 285 284 283 283 283 283 283 282 282 282 282 282 282 282 282 282 282 283 282 282 281 279 280 280 280 280
297 297 301 300 296 296 293 292 291 290 289 288 287 286 285 285 285 284 283 282 282 282 282 282 282 282 281 280 280 280 280 280 281 282 281 281 281 281 281 281 279 277 277 278

GFSCGP_925_thetae_111.txt.gz
Theta_e
313 313 315 316 316 316 316 317 318 317 317 316 316 315 315 315 315 315 315 315 316 316 318 320 320 321 321 321 321 321 321 322 323 324 323 320 330 333 336 338 339 342 341 340
313 314 314 315 315 315 315 315 315 315 314 314 314 314 315 316 316 316 316 316 316 317 320 320 319 318 318 318 318 317 318 319 320 321 323 324 322 327 330 334 336 339 341 340
315 313 313 313 314 313 313 314 314 314 314 315 315 314 314 314 315 315 316 316 320 320 319 318 317 316 315 315 315 314 315 315 316 317 319 322 324 323 328 333 333 335 339 341
316 316 314 315 315 314 314 314 314 313 313 314 313 314 316 315 314 314 317 320 320 318 317 316 316 315 314 313 313 312 313 313 313 314 316 318 321 325 323 330 331 333 336 339
317 316 316 315 315 314 313 313 312 312 313 313 313 314 315 315 314 316 320 321 318 317 316 315 314 312 311 311 310 310 310 310 310 310 312 314 316 319 324 326 332 333 334 337
315 314 314 312 311 312 312 311 311 311 311 313 313 314 315 314 314 317 322 319 318 316 315 314 311 310 310 309 308 308 307 306 306 306 307 308 310 312 317 322 328 335 334 336
314 313 313 310 311 310 310 311 313 313 314 314 313 313 314 316 321 321 321 318 316 314 313 313 311 310 308 307 306 305 304 303 303 303 303 304 305 308 311 316 323 329 334 336
316 319 312 311 311 311 311 310 312 319 318 316 314 313 316 321 320 317 316 314 312 311 311 310 309 307 306 304 304 303 301 300 299 300 300 300 300 303 307 312 318 326 333 334
314 313 312 309 308 308 310 313 311 314 315 315 316 316 321 319 318 316 314 312 311 310 309 309 307 306 304 303 302 300 298 297 297 296 296 296 298 301 304 308 314 321 330 333
313 317 310 308 307 307 307 308 314 311 311 312 310 311 312 321 318 314 312 311 309 308 308 307 306 304 302 301 300 298 296 295 294 294 293 294 297 300 303 306 310 320 331 333
312 312 311 308 308 308 307 307 307 308 310 313 313 312 319 319 316 314 311 308 307 307 306 306 304 302 300 298 297 295 293 293 292 291 291 294 297 300 304 312 316 324 332 332
310 311 312 309 307 306 306 307 307 311 308 308 307 307 316 315 313 310 308 307 305 305 305 304 303 300 298 296 294 293 291 290 289 289 291 293 296 298 303 310 326 328 329 331
308 309 310 307 306 305 305 305 305 306 307 307 313 310 313 311 310 310 307 306 305 304 303 302 301 299 296 294 293 291 290 288 288 289 290 291 294 295 297 303 317 323 328 330
305 307 307 306 304 306 305 304 305 306 310 307 306 305 310 310 307 305 306 306 304 302 300 299 299 297 295 293 291 290 288 287 287 288 289 289 291 292 294 296 299 313 321 327
305 306 305 304 304 302 303 304 304 305 306 307 305 306 305 305 305 305 305 303 302 300 298 297 296 295 293 291 290 290 288 286 286 287 288 288 290 291 292 292 294 299 308 310
305 305 304 304 303 302 302 302 302 302 303 303 303 303 303 303 306 305 303 301 300 297 295 294 293 292 290 289 289 289 288 287 286 286 287 287 288 289 290 291 291 291 293 296
305 304 303 303 300 300 301 301 301 301 302 302 305 303 306 306 306 302 300 298 295 293 292 291 291 290 289 288 288 288 287 287 287 287 287 287 287 287 287 288 289 289 287 289
303 303 303 302 300 301 304 304 304 304 303 303 305 306 305 304 299 296 295 294 292 291 290 289 288 288 287 287 287 287 287 287 287 287 287 287 287 287 286 285 286 286 286 286
301 301 302 302 302 301 303 304 303 303 304 304 303 303 301 298 297 293 292 291 290 289 288 287 287 287 286 286 286 286 286 286 286 287 287 287 287 287 287 286 285 284 284 284
301 301 302 302 302 303 307 302 301 301 304 300 300 302 299 299 304 295 291 290 289 288 287 286 286 285 285 285 286 286 285 286 286 286 286 286 287 287 287 287 287 286 285 283
304 303 303 303 304 307 300 300 301 304 303 297 297 300 299 299 294 290 289 288 288 288 288 288 286 285 285 285 284 285 285 285 285 285 285 286 286 286 287 287 287 287 286 286
304 305 306 306 308 308 298 300 302 299 295 295 297 298 293 291 290 289 289 288 288 288 288 287 287 286 285 285 284 284 284 285 285 285 284 284 284 285 285 286 286 286 286 286
306 306 309 304 304 298 296 296 295 296 295 293 293 292 291 290 290 289 288 287 287 286 286 286 286 285 285 285 285 284 283 284 285 285 285 283 282 283 284 283 283 284 284 284
304 302 305 303 299 297 296 294 294 293 293 292 291 291 290 289 288 288 288 287 286 286 286 286 285 285 284 284 284 284 284 284 284 284 285 285 284 281 280 282 281 281 281 283
303 302 303 300 298 296 295 294 293 291 291 290 289 289 288 288 288 287 287 286 285 285 285 285 284 284 283 283 283 283 283 284 284 284 284 284 284 284 282 279 278 279 278 279
299 300 303 304 299 298 295 293 292 291 290 289 288 288 288 287 287 286 285 284 284 284 284 284 283 283 282 282 281 281 282 282 283 283 283 283 283 283 283 283 282 277 277 277

GFSCGP_925_thetae_117.txt.gz
Theta_e
311 310 310 310 311 314 314 315 316 315 315 315 314 314 313 313 312 312 311 311 311 318 319 320 318 317 317 316 316 315 315 315 315 315 316 316 317 320 322 323 326 335 338 340
310 311 312 314 315 315 316 315 314 313 313 314 313 313 312 313 312 311 311 310 310 319 319 317 316 316 315 314 314 313 312 312 312 312 312 313 314 317 318 321 324 325 326 328
312 313 313 313 314 315 315 314 313 313 313 313 313 313 311 313 313 313 312 313 313 319 317 316 314 313 312 311 311 310 310 310 309 308 308 309 311 313 314 316 317 320 322 324
316 315 315 315 314 313 313 315 317 316 317 317 313 317 315 314 313 313 313 317 317 316 314 312 310 309 309 308 308 308 307 306 305 305 304 304 306 308 308 309 310 313 316 318
316 316 316 317 316 314 315 317 312 312 315 317 315 314 313 312 313 315 318 317 315 313 311 309 308 308 307 306 306 305 304 303 302 301 301 301 302 303 304 305 306 308 311 313
315 313 314 315 315 315 316 314 311 310 313 317 316 314 314 312 315 321 319 316 313 311 309 307 307 306 305 304 303 303 301 300 299 298 298 298 298 299 300 301 302 303 306 309
314 315 314 315 316 315 316 312 315 314 315 314 313 315 313 322 320 320 316 312 310 308 307 306 305 303 303 301 300 299 297 296 296 295 296 295 296 296 297 298 300 301 302 304
313 314 314 314 315 316 315 312 315 319 317 315 314 317 320 318 315 313 311 309 308 306 305 304 302 301 300 298 297 296 295 294 293 292 292 293 293 294 295 296 297 299 300 302
312 315 312 313 312 314 313 312 312 315 315 315 313 318 315 314 314 312 310 309 308 306 305 303 301 300 298 297 295 294 293 292 291 290 290 290 291 292 293 294 295 296 298 300
312 314 314 314 309 309 310 308 314 315 318 318 314 314 322 318 315 313 310 308 305 303 302 302 300 298 296 295 293 292 292 290 289 288 289 289 290 291 292 293 294 296 298 299
312 312 314 313 312 308 308 308 308 314 313 316 316 315 318 317 315 312 309 306 303 301 300 299 298 297 294 293 292 291 290 290 288 288 288 289 290 290 291 292 293 295 296 298
309 313 315 315 312 310 308 310 310 309 309 309 310 310 317 316 314 311 307 305 301 300 298 297 296 294 292 291 291 290 289 289 288 288 288 289 289 289 290 290 291 293 294 295
310 310 312 312 312 312 312 308 309 310 310 310 312 311 314 314 311 309 306 302 300 299 297 295 293 292 291 290 289 289 288 288 288 288 288 288 288 288 288 289 290 290 291 293
309 310 311 312 312 310 308 308 307 307 308 308 308 308 309 312 310 306 303 299 297 296 295 294 292 291 290 289 288 288 287 287 287 288 288 288 288 287 287 287 287 288 289 290
306 307 309 308 308 308 309 308 306 307 306 307 306 308 308 308 306 304 302 299 296 295 293 292 291 289 288 288 287 287 287 287 287 287 288 288 288 287 286 285 285 285 287 288
306 308 304 305 305 305 305 303 303 303 304 303 303 304 306 304 302 300 299 296 295 293 292 290 289 288 287 287 287 287 287 286 287 287 287 287 287 287 287 286 285 285 285 286
307 306 304 305 303 302 301 302 304 302 306 306 301 306 302 299 297 296 294 293 292 291 289 288 287 287 287 287 286 286 286 286 286 286 286 286 287 287 287 286 285 285 285 285
306 305 304 305 302 303 305 304 303 304 304 305 305 302 298 295 293 292 291 290 289 288 287 286 286 286 286 286 286 286 286 285 285 285 285 285 285 286 286 286 286 285 284 284
304 303 303 302 303 303 303 302 299 299 301 300 301 300 296 293 291 291 290 289 288 286 285 285 285 285 285 285 285 285 285 284 283 283 283 284 283 283 284 284 285 284 284 283
302 301 300 302 302 296 304 302 302 300 298 297 297 299 298 296 296 290 290 289 288 286 285 285 285 285 285 284 285 285 285 285 284 281 281 282 282 281 282 283 282 283 283 282
301 301 301 301 300 303 301 299 300 299 295 296 296 296 299 295 291 288 287 288 289 288 287 286 285 285 285 285 284 285 285 285 285 284 282 280 280 279 279 280 281 280 281 281
302 303 300 298 299 303 297 299 301 297 295 294 294 292 291 289 288 288 288 288 288 287 287 286 285 285 284 284 285 285 284 285 285 285 284 282 280 279 278 278 278 279 279 279
303 300 305 300 298 297 296 296 296 295 294 294 292 291 290 288 288 287 287 287 287 286 286 285 285 284 283 283 283 283 285 284 284 284 283 283 281 280 279 277 277 277 278 278
303 303 299 300 298 296 295 294 293 292 292 292 291 290 289 288 287 287 287 287 286 286 285 284 283 283 282 282 282 282 283 283 283 283 283 283 282 281 279 278 278 277 277 277
300 302 301 299 297 295 295 293 292 291 290 290 289 289 288 288 287 287 287 286 286 285 284 283 282 281 281 281 281 282 282 283 282 282 282 282 282 282 280 279 278 278 278 278
297 298 302 300 296 297 294 292 291 290 290 289 289 288 287 287 286 286 285 285 285 284 283 281 281 280 280 280 280 280 281 282 282 282 282 282 282 281 281 281 280 280 278 277

GFSCGP_925_thetae_120.txt.gz
Theta_e
310 309 309 311 309 311 312 313 313 312 312 312 312 311 312 310 308 308 309 308 312 320 318 315 314 314 313 312 312 312 311 310 311 310 310 312 311 312 316 316 317 319 322 325
310 310 309 310 310 311 312 314 314 314 313 312 311 310 309 309 309 309 309 309 317 320 315 313 311 310 309 309 309 308 308 307 307 307 306 305 306 309 309 311 312 314 316 317
310 311 310 311 312 313 313 314 314 314 313 313 312 314 312 313 312 312 312 311 318 317 313 310 308 307 306 306 306 305 305 304 304 303 303 304 306 306 307 307 308 308 309 310
313 312 313 314 314 314 314 312 313 314 311 313 312 317 313 313 312 312 315 315 314 312 310 307 305 304 304 303 303 302 302 301 300 300 299 299 299 300 301 301 302 305 306 308
315 314 314 315 315 315 316 315 316 313 312 311 313 314 312 311 311 317 315 312 310 308 306 306 305 302 301 300 299 299 298 297 296 297 297 297 296 296 297 298 299 300 303 304
314 313 314 314 314 314 315 313 310 309 310 314 312 313 312 318 320 316 313 310 309 306 305 304 302 300 298 297 297 296 295 294 293 293 293 294 294 295 295 295 296 298 299 300
315 314 311 313 313 314 315 315 319 314 312 313 313 313 316 316 313 312 309 307 306 305 304 302 300 299 297 295 294 294 293 292 291 291 291 291 292 292 293 295 295 296 297 298
312 312 312 313 313 315 316 316 318 318 316 312 312 312 317 313 310 310 309 307 306 304 303 302 299 297 295 294 292 292 291 290 290 289 289 289 290 290 291 293 294 295 296 296
311 312 311 310 311 313 313 312 311 315 314 315 311 315 315 314 311 308 307 306 306 305 303 300 297 295 294 292 291 290 290 290 289 288 288 288 289 290 291 291 292 293 294 295
310 312 313 313 309 308 311 310 312 313 318 318 313 312 317 317 311 311 308 306 304 302 301 298 296 294 292 291 290 289 289 289 288 288 288 288 289 290 290 291 291 292 293 294
310 311 312 312 310 308 307 307 307 314 314 315 315 310 314 316 313 312 308 304 301 299 297 295 293 292 290 289 289 288 288 288 287 288 288 288 289 289 289 290 290 291 291 292
310 310 312 313 311 307 307 307 309 313 312 309 308 307 315 313 313 309 302 300 297 296 294 293 291 290 289 288 288 287 287 287 287 288 288 288 288 288 288 288 288 288 289 290
309 310 311 310 310 310 312 309 308 310 310 311 310 308 314 312 311 305 302 299 297 295 292 291 290 289 288 288 287 287 287 287 287 287 288 288 288 287 287 286 286 287 287 288
310 309 309 310 311 309 308 309 308 308 312 311 309 308 307 310 307 302 300 297 295 293 292 291 289 288 288 287 287 286 287 286 287 287 287 287 287 287 287 286 286 286 286 286
305 308 309 309 309 310 312 311 309 308 307 308 306 307 307 305 303 300 297 296 294 293 291 290 289 288 287 287 286 286 286 286 286 286 286 286 286 286 287 286 285 285 285 285
304 306 304 305 305 305 307 307 304 302 303 304 303 306 302 299 297 297 296 294 293 291 290 289 288 287 286 286 286 286 285 285 285 285 285 284 284 285 285 285 285 284 283 284
304 305 303 305 302 300 302 302 302 302 306 305 302 305 299 298 298 295 292 291 291 289 288 287 286 285 285 285 285 285 284 283 283 283 283 283 283 283 284 283 284 283 283 283
304 304 304 306 302 305 304 303 303 304 302 303 303 301 298 296 293 292 290 290 289 287 285 284 284 284 284 285 285 285 284 282 281 281 281 282 282 281 282 282 282 282 282 282
305 302 302 302 303 303 304 301 298 299 300 298 302 296 294 292 290 291 289 288 285 283 284 284 284 284 284 285 285 285 285 284 282 280 279 280 279 279 279 280 280 281 281 281
302 302 299 300 301 295 294 301 300 297 297 296 296 298 294 291 292 290 289 286 284 285 285 285 285 285 285 285 285 285 285 285 283 281 280 279 278 278 278 278 279 278 279 279
301 300 301 299 298 301 300 298 299 300 296 295 295 294 297 295 289 288 287 287 285 285 285 285 284 284 284 285 284 284 284 284 284 283 281 279 278 278 277 277 277 278 278 279
301 302 298 296 295 299 296 298 301 295 292 293 290 292 292 288 287 286 287 287 287 287 286 285 284 283 283 283 283 283 283 283 283 283 282 280 279 278 278 278 277 277 277 278
301 299 298 299 295 294 294 292 295 296 294 293 289 289 289 288 287 287 287 286 286 286 285 284 283 282 282 282 282 282 283 283 282 282 282 281 279 279 278 278 278 278 278 278
302 301 297 298 295 295 295 293 293 291 290 289 289 289 288 287 286 286 286 286 286 285 284 283 282 281 281 281 282 282 282 282 282 282 282 281 281 279 279 278 277 278 279 279
299 301 299 298 297 296 294 293 291 290 288 289 288 287 286 286 286 286 286 286 285 284 283 282 281 281 280 280 281 281 282 282 281 281 281 281 280 280 280 279 277 277 278 279
294 300 297 294 295 294 293 292 290 290 289 288 288 287 287 286 286 286 285 285 284 282 281 280 280 279 280 280 280 280 281 281 281 280 280 280 280 280 279 279 277 277 277 278

GFSCGP_925_thetae_123.txt.gz
Theta_e
310 311 310 311 308 310 311 312 311 310 310 311 312 311 311 307 307 308 306 307 316 315 312 309 308 308 307 307 307 307 307 306 308 309 309 309 309 309 309 310 310 310 312 315
310 310 310 309 309 310 310 310 311 311 311 311 311 311 309 309 309 310 309 309 316 313 310 308 305 304 303 302 302 301 301 301 301 302 302 304 304 306 306 307 306 307 307 307
310 311 310 310 310 311 310 311 312 313 311 311 311 312 310 311 310 311 314 312 315 311 308 305 303 301 300 299 298 298 297 297 296 298 299 301 303 303 303 303 302 302 303 304
310 309 309 310 311 310 312 311 312 314 314 317 311 317 314 310 314 313 310 307 307 305 304 302 301 300 298 297 296 295 295 294 294 295 295 296 296 296 298 298 299 300 301 302
314 314 313 314 313 313 314 314 314 314 313 311 312 312 311 315 317 311 308 306 305 304 303 301 300 298 296 294 294 294 293 293 292 292 293 293 293 294 295 296 297 298 300 299
312 312 313 312 312 312 313 314 313 310 309 317 313 311 310 317 317 310 307 306 305 303 302 300 299 298 296 294 293 292 292 291 290 291 291 291 291 292 292 293 294 295 296 297
313 313 312 313 314 312 312 314 321 317 313 314 311 311 313 315 311 309 306 305 304 303 302 299 298 296 295 293 292 291 290 290 289 289 289 289 289 290 290 291 292 293 294 296
312 312 310 310 311 312 314 314 315 318 316 312 310 312 313 313 310 307 307 306 305 304 302 299 297 295 293 292 291 289 289 289 289 288 289 289 289 289 290 291 291 292 293 294
311 311 310 311 311 312 312 315 313 314 312 314 311 313 313 312 310 309 308 308 306 305 301 298 296 294 292 291 290 289 288 288 288 288 288 288 288 289 290 290 291 291 292 293
310 311 312 312 308 308 311 310 312 310 317 317 312 311 311 316 312 310 310 309 306 303 299 296 293 292 290 289 288 288 287 288 288 288 288 288 288 288 288 289 289 290 290 290
307 309 311 311 310 309 306 308 308 311 311 315 314 311 312 313 313 311 309 305 302 297 295 293 291 290 289 288 287 287 287 287 287 287 288 288 288 288 287 287 287 288 288 288
311 311 313 312 310 306 306 306 307 310 311 310 308 308 308 311 311 310 306 300 296 293 291 290 289 288 289 287 287 287 287 287 287 286 287 287 287 287 287 287 286 286 287 287
309 308 313 313 309 309 310 308 308 309 308 310 312 309 314 312 310 305 300 297 294 292 290 289 289 288 288 287 287 287 286 286 286 286 286 286 286 286 286 286 285 285 285 286
309 308 309 312 310 309 310 310 308 309 310 311 310 308 309 311 305 301 297 294 292 291 291 290 289 288 287 287 287 286 286 285 285 285 284 284 284 285 284 284 284 284 284 284
307 309 308 309 309 311 311 312 311 311 309 311 308 307 305 305 302 297 295 294 293 291 290 289 288 287 286 286 286 285 285 284 284 283 283 283 283 283 283 283 283 283 283 283
304 307 304 306 306 306 309 309 308 309 309 307 305 305 300 298 297 297 295 294 292 291 289 288 287 286 286 285 284 283 282 282 282 282 282 282 283 282 282 282 282 282 282 282
305 306 307 310 304 301 302 305 306 306 305 304 300 302 299 298 296 294 292 292 291 289 288 286 286 285 285 285 284 284 282 280 280 280 280 280 282 281 280 281 281 280 281 281
305 307 307 309 302 305 303 302 303 304 302 303 302 300 297 297 293 291 289 290 289 287 286 285 284 284 284 285 285 285 283 281 280 279 279 278 278 279 280 280 279 279 280 280
306 306 307 305 304 302 302 300 297 298 300 298 299 296 295 292 291 290 289 287 284 282 284 284 285 285 285 284 284 284 284 282 280 279 279 278 278 278 278 278 278 278 279 280
304 304 303 300 302 297 295 300 299 296 298 296 297 295 293 292 294 287 287 285 283 284 284 284 284 284 284 284 284 283 283 282 281 279 278 278 278 278 278 278 277 278 279 279
305 302 305 301 300 300 299 298 298 298 296 294 294 295 295 292 289 287 285 283 284 285 285 284 283 283 283 283 283 283 282 282 282 280 279 278 278 278 278 278 278 278 278 278
304 304 301 298 298 301 297 298 300 293 291 293 290 288 294 290 287 286 284 284 285 286 285 284 283 283 283 283 282 282 282 282 282 281 279 279 278 277 277 278 278 279 278 278
300 298 298 300 299 293 294 290 293 293 291 292 289 286 289 288 287 287 286 287 286 285 284 283 283 282 281 282 282 282 282 282 281 281 281 280 279 278 277 277 278 278 278 277
301 299 298 299 296 293 293 292 292 290 290 286 286 286 286 285 286 286 286 286 285 284 283 282 282 281 281 281 281 281 281 281 281 281 280 280 280 278 277 277 277 278 278 278
299 300 299 298 296 295 294 293 291 290 289 288 285 285 284 285 285 285 285 285 284 283 282 281 281 280 280 280 280 281 281 281 280 280 279 279 279 278 277 276 277 277 278 278
295 298 298 297 296 294 294 291 289 288 288 286 286 286 285 285 285 285 284 284 283 282 281 280 280 279 279 279 280 280 280 280 279 279 278 278 277 277 277 276 275 276 276 276